FW4143 Weather Reports


Display with metric or nautical units.
time (UTC)temp
F
wind
direction
speed
MPH
gust
MPH
rain 1hr
in
rain 24hr
in
rain mn
in
humidity
%
barometer
mb
20260508013104 64 0 0.0 1.0 0.00 0.00 0.00 44 1014.4
20260508013005 64 0 0.0 1.0 0.00 0.00 0.00 44 1014.3
20260508012904 64 0 0.0 1.0 0.00 0.00 0.00 44 1014.2
20260508012804 64 0 0.0 1.0 0.00 0.00 0.00 45 1014.2
20260508012704 64 0 0.0 0.0 0.00 0.00 0.00 45 1014.3
20260508012604 64 0 0.0 0.0 0.00 0.00 0.00 45 1014.4
20260508012504 64 0 0.0 0.0 0.00 0.00 0.00 45 1014.6
20260508012404 64 0 0.0 0.0 0.00 0.00 0.00 45 1014.8
20260508012307 64 0 0.0 0.0 0.00 0.00 0.00 46 1014.9
20260508012225 64 0 0.0 0.0 0.00 0.00 0.00 46 1015.0
20260508012104 64 0 0.0 0.0 0.00 0.00 0.00 46 1015.1
20260508012025 64 0 0.0 0.0 0.00 0.00 0.00 46 1015.2
20260508011904 64 0 0.0 0.0 0.00 0.00 0.00 46 1015.2
20260508011825 64 0 0.0 0.0 0.00 0.00 0.00 46 1015.2
20260508011704 64 0 0.0 0.0 0.00 0.00 0.00 47 1015.1
20260508011604 64 0 0.0 0.0 0.00 0.00 0.00 47 1015.0
20260508011504 64 0 0.0 0.0 0.00 0.00 0.00 47 1014.8
20260508011404 64 0 0.0 0.0 0.00 0.00 0.00 47 1014.6
20260508011304 64 0 0.0 0.0 0.00 0.00 0.00 47 1014.5
20260508011204 64 0 0.0 0.0 0.00 0.00 0.00 48 1014.4
20260508011104 64 0 0.0 0.0 0.00 0.00 0.00 48 1014.4
20260508011004 64 0 0.0 0.0 0.00 0.00 0.00 48 1014.5
20260508010904 64 0 0.0 0.0 0.00 0.00 0.00 48 1014.5
20260508010804 64 0 0.0 0.0 0.00 0.00 0.00 48 1014.7
20260508010725 64 0 0.0 0.0 0.00 0.00 0.00 48 1014.8
20260508010604 64 0 0.0 0.0 0.00 0.00 0.00 48 1014.9
20260508010525 64 0 0.0 0.0 0.00 0.00 0.00 48 1014.9
20260508010404 64 0 0.0 0.0 0.00 0.00 0.00 49 1014.8
20260508010304 64 0 0.0 0.0 0.00 0.00 0.00 49 1014.6
20260508010204 64 0 0.0 0.0 0.00 0.00 0.00 49 1014.6
20260508010105 64 0 0.0 0.0 0.00 0.00 0.00 49 1014.5
20260508010004 64 0 0.0 0.0 0.00 0.00 0.00 49 1014.5
20260508005925 64 0 0.0 0.0 0.00 0.00 0.00 49 1014.5
20260508005804 64 0 0.0 0.0 0.00 0.00 0.00 49 1014.5
20260508005725 65 0 0.0 0.0 0.00 0.00 0.00 49 1014.6
20260508005604 65 0 0.0 0.0 0.00 0.00 0.00 49 1014.6
20260508005504 65 0 0.0 0.0 0.00 0.00 0.00 49 1014.7
20260508005404 65 0 0.0 0.0 0.00 0.00 0.00 50 1014.8
20260508005306 65 0 0.0 0.0 0.00 0.00 0.00 49 1014.8
20260508005204 65 0 0.0 0.0 0.00 0.00 0.00 50 1014.9
20260508005104 65 212 0.0 2.0 0.00 0.00 0.00 50 1015.1
20260508005004 65 225 0.0 2.0 0.00 0.00 0.00 50 1015.1
20260508004904 65 250 0.0 8.0 0.00 0.00 0.00 50 1015.1
20260508004825 65 250 0.0 8.0 0.00 0.00 0.00 50 1015.1
20260508004704 65 251 0.0 8.0 0.00 0.00 0.00 50 1015.1
20260508004604 65 251 0.0 8.0 0.00 0.00 0.00 50 1015.0
20260508004504 65 251 0.0 8.0 0.00 0.00 0.00 50 1014.9
20260508004404 65 251 0.0 8.0 0.00 0.00 0.00 50 1014.8
20260508004304 65 244 0.0 8.0 0.00 0.00 0.00 50 1014.6
20260508004204 65 244 0.0 8.0 0.00 0.00 0.00 50 1014.5
20260508004104 65 247 0.0 8.0 0.00 0.00 0.00 50 1014.4
20260508004004 65 249 0.0 8.0 0.00 0.00 0.00 50 1014.4
20260508003925 65 260 0.0 8.0 0.00 0.00 0.00 50 1014.4
20260508003825 65 259 0.0 8.0 0.00 0.00 0.00 50 1014.5
20260508003704 65 259 0.0 8.0 0.00 0.00 0.00 50 1014.8
20260508003604 65 259 0.0 8.0 0.00 0.00 0.00 50 1014.9
20260508003525 65 259 0.0 8.0 0.00 0.00 0.00 50 1015.0
20260508003404 65 259 0.0 8.0 0.00 0.00 0.00 50 1015.1
20260508003304 65 263 0.0 8.0 0.00 0.00 0.00 50 1015.1
20260508003204 65 263 0.0 8.0 0.00 0.00 0.00 50 1014.9
20260508003105 65 261 0.0 8.0 0.00 0.00 0.00 50 1014.8
20260508003025 65 261 0.0 8.0 0.00 0.00 0.00 50 1014.7
20260508002904 65 229 0.0 4.0 0.00 0.00 0.00 50 1014.8
20260508002825 65 228 0.0 4.0 0.00 0.00 0.00 50 1015.1
20260508002704 65 221 0.0 4.0 0.00 0.00 0.00 50 1015.4
20260508002625 65 221 0.0 4.0 0.00 0.00 0.00 50 1015.6
20260508002504 65 218 0.0 4.0 0.00 0.00 0.00 51 1015.7
20260508002404 65 211 0.0 4.0 0.00 0.00 0.00 51 1015.8
20260508002307 65 211 0.0 4.0 0.00 0.00 0.00 51 1015.7
20260508002204 65 211 0.0 4.0 0.00 0.00 0.00 51 1015.5
20260508002104 65 214 0.0 4.0 0.00 0.00 0.00 51 1015.3
20260508002004 65 218 0.0 9.0 0.00 0.00 0.00 51 1015.2
20260508001925 65 217 0.0 9.0 0.00 0.00 0.00 51 1015.3
20260508001804 66 216 0.0 9.0 0.00 0.00 0.00 51 1015.5
20260508001704 66 216 0.0 9.0 0.00 0.00 0.00 51 1015.7
20260508001604 66 216 0.0 9.0 0.00 0.00 0.00 51 1015.8
20260508001504 66 217 0.0 9.0 0.00 0.00 0.00 51 1015.8
20260508001404 66 218 0.0 9.0 0.00 0.00 0.00 51 1015.7
20260508001304 66 219 0.0 9.0 0.00 0.00 0.00 51 1015.5
20260508001225 66 219 0.0 9.0 0.00 0.00 0.00 51 1015.5
20260508001125 66 219 0.0 9.0 0.00 0.00 0.00 51 1015.5
20260508001004 66 0 0.0 1.0 0.00 0.00 0.00 51 1015.6
20260508000904 66 0 0.0 1.0 0.00 0.00 0.00 51 1015.7
20260508000804 66 0 0.0 1.0 0.00 0.00 0.00 51 1015.8
20260508000704 66 0 0.0 1.0 0.00 0.00 0.00 51 1015.8
20260508000625 66 0 0.0 1.0 0.00 0.00 0.00 51 1015.8
20260508000504 66 232 0.0 6.0 0.00 0.00 0.00 51 1015.6
20260508000405 66 234 0.0 7.0 0.00 0.00 0.00 51 1015.6
20260508000305 66 234 0.0 7.0 0.00 0.00 0.00 51 1015.7
20260508000205 66 234 0.0 7.0 0.00 0.00 0.00 51 1015.6
20260508000104 66 234 0.0 7.0 0.00 0.00 0.00 51 1015.7
20260508000025 66 234 0.0 7.0 0.00 0.00 0.00 51 1015.6
20260507235904 66 234 0.0 7.0 0.00 0.00 0.00 51 1015.5
20260507235825 66 234 0.0 7.0 0.00 0.00 0.00 51 1015.4
20260507235704 66 234 0.0 7.0 0.00 0.00 0.00 51 1015.3
20260507235625 66 234 0.0 7.0 0.00 0.00 0.00 51 1015.3
20260507235504 66 233 0.0 7.0 0.00 0.00 0.00 51 1015.4
20260507235404 66 0 0.0 0.0 0.00 0.00 0.00 51 1015.5
20260507235306 66 0 0.0 0.0 0.00 0.00 0.00 50 1015.7
20260507235204 66 0 0.0 0.0 0.00 0.00 0.00 51 1015.8
20260507235104 66 0 0.0 0.0 0.00 0.00 0.00 51 1015.8
20260507235004 66 0 0.0 0.0 0.00 0.00 0.00 51 1015.9
20260507234904 66 0 0.0 0.0 0.00 0.00 0.00 51 1015.8
20260507234804 66 0 0.0 0.0 0.00 0.00 0.00 51 1015.8
20260507234704 66 0 0.0 0.0 0.00 0.00 0.00 51 1015.7
20260507234604 66 0 0.0 0.0 0.00 0.00 0.00 51 1015.7
20260507234525 66 0 0.0 0.0 0.00 0.00 0.00 51 1015.7
20260507234404 66 0 0.0 0.0 0.00 0.00 0.00 51 1015.7
20260507234304 66 0 0.0 0.0 0.00 0.00 0.00 51 1015.8
20260507234204 66 0 0.0 0.0 0.00 0.00 0.00 50 1015.8
20260507234104 66 0 0.0 0.0 0.00 0.00 0.00 51 1015.8
20260507234004 66 0 0.0 0.0 0.00 0.00 0.00 51 1015.9
20260507233904 66 0 0.0 0.0 0.00 0.00 0.00 51 1015.9
20260507233804 66 0 0.0 0.0 0.00 0.00 0.00 50 1015.9
20260507233704 66 0 0.0 0.0 0.00 0.00 0.00 51 1015.8
20260507233604 66 0 0.0 0.0 0.00 0.00 0.00 51 1015.9
20260507233504 66 0 0.0 0.0 0.00 0.00 0.00 51 1015.8
20260507233425 66 0 0.0 0.0 0.00 0.00 0.00 51 1015.8
20260507233304 66 220 0.0 5.0 0.00 0.00 0.00 51 1015.8
20260507233204 66 219 1.0 6.0 0.00 0.00 0.00 51 1015.7
20260507233104 66 219 1.0 6.0 0.00 0.00 0.00 51 1015.8
20260507233004 66 219 1.0 6.0 0.00 0.00 0.00 51 1015.8
20260507232904 66 219 1.0 6.0 0.00 0.00 0.00 51 1015.8
20260507232804 66 219 1.0 6.0 0.00 0.00 0.00 51 1015.7
20260507232705 66 219 1.0 6.0 0.00 0.00 0.00 51 1015.6
20260507232604 66 219 1.0 6.0 0.00 0.00 0.00 51 1015.6
20260507232504 66 219 1.0 6.0 0.00 0.00 0.00 51 1015.5
20260507232404 66 219 1.0 6.0 0.00 0.00 0.00 51 1015.5
20260507232306 66 219 0.0 6.0 0.00 0.00 0.00 51 1015.5
20260507232204 66 0 0.0 1.0 0.00 0.00 0.00 51 1015.5
20260507232104 66 0 0.0 1.0 0.00 0.00 0.00 51 1015.7
20260507232004 66 0 0.0 1.0 0.00 0.00 0.00 51 1015.7
20260507231904 66 0 0.0 1.0 0.00 0.00 0.00 51 1015.7
20260507231804 66 0 0.0 1.0 0.00 0.00 0.00 51 1015.7
20260507231704 66 0 0.0 1.0 0.00 0.00 0.00 51 1015.7
20260507231604 66 0 0.0 0.0 0.00 0.00 0.00 51 1015.7
20260507231504 66 0 0.0 0.0 0.00 0.00 0.00 51 1015.8
20260507231404 66 0 0.0 0.0 0.00 0.00 0.00 51 1015.9
20260507231304 66 0 0.0 0.0 0.00 0.00 0.00 51 1016.0
20260507231204 66 0 0.0 0.0 0.00 0.00 0.00 51 1016.0
20260507231104 66 0 0.0 0.0 0.00 0.00 0.00 50 1016.0
20260507231004 66 0 0.0 0.0 0.00 0.00 0.00 50 1016.0
20260507230904 66 0 0.0 0.0 0.00 0.00 0.00 51 1015.9
20260507230805 66 0 0.0 0.0 0.00 0.00 0.00 51 1015.8
20260507230704 66 0 0.0 0.0 0.00 0.00 0.00 51 1015.8
20260507230625 66 0 0.0 0.0 0.00 0.00 0.00 51 1015.7
20260507230504 66 0 0.0 0.0 0.00 0.00 0.00 50 1015.7
20260507230404 66 0 0.0 0.0 0.00 0.00 0.00 50 1015.6
20260507230304 66 0 0.0 0.0 0.00 0.00 0.00 50 1015.6
20260507230204 66 0 0.0 0.0 0.00 0.00 0.00 50 1015.5
20260507230104 66 0 0.0 0.0 0.00 0.00 0.00 50 1015.5
20260507230004 66 0 0.0 0.0 0.00 0.00 0.00 51 1015.5
20260507225905 66 0 0.0 0.0 0.00 0.00 0.00 50 1015.5
20260507225804 66 0 0.0 0.0 0.00 0.00 0.00 51 1015.5
20260507225704 66 0 0.0 0.0 0.00 0.00 0.00 51 1015.5
20260507225604 66 0 0.0 0.0 0.00 0.00 0.00 51 1015.4
20260507225504 66 0 0.0 0.0 0.00 0.00 0.00 51 1015.5
20260507225425 66 182 1.0 5.0 0.00 0.00 0.00 51 1015.5
20260507225325 66 186 1.0 8.0 0.00 0.00 0.00 50 1015.5
20260507225225 66 185 1.0 8.0 0.00 0.00 0.00 50 1015.7
20260507225104 66 192 1.0 8.0 0.00 0.00 0.00 51 1015.7
20260507225025 66 192 1.0 8.0 0.00 0.00 0.00 51 1015.7
20260507224904 66 192 1.0 8.0 0.00 0.00 0.00 51 1015.7
20260507224804 66 192 1.0 8.0 0.00 0.00 0.00 51 1015.7
20260507224705 66 192 1.0 8.0 0.00 0.00 0.00 51 1015.8
20260507224604 66 192 1.0 8.0 0.00 0.00 0.00 51 1015.8
20260507224505 66 192 1.0 8.0 0.00 0.00 0.00 50 1015.9
20260507224404 66 197 1.0 8.0 0.00 0.00 0.00 50 1015.8
20260507224304 66 197 1.0 8.0 0.00 0.00 0.00 50 1015.7
20260507224204 66 202 0.0 6.0 0.00 0.00 0.00 50 1015.7
20260507224104 66 209 0.0 3.0 0.00 0.00 0.00 51 1015.8
20260507224004 66 197 0.0 3.0 0.00 0.00 0.00 50 1015.8
20260507223904 66 197 0.0 3.0 0.00 0.00 0.00 50 1015.9
20260507223804 66 197 0.0 3.0 0.00 0.00 0.00 50 1015.9
20260507223704 66 196 0.0 3.0 0.00 0.00 0.00 50 1016.1
20260507223604 66 196 0.0 3.0 0.00 0.00 0.00 50 1016.1
20260507223504 66 196 0.0 3.0 0.00 0.00 0.00 50 1016.2
20260507223425 66 196 0.0 3.0 0.00 0.00 0.00 50 1016.2
20260507223304 66 196 0.0 3.0 0.00 0.00 0.00 50 1016.3
20260507223225 66 194 0.0 3.0 0.00 0.00 0.00 50 1016.3
20260507223104 66 195 0.0 3.0 0.00 0.00 0.00 50 1016.3
20260507223004 66 196 0.0 3.0 0.00 0.00 0.00 50 1016.3
20260507222904 66 193 0.0 3.0 0.00 0.00 0.00 50 1016.3
20260507222804 66 197 0.0 6.0 0.00 0.00 0.00 50 1016.3
20260507222704 66 197 0.0 6.0 0.00 0.00 0.00 50 1016.3
20260507222604 66 186 0.0 6.0 0.00 0.00 0.00 50 1016.3
20260507222504 66 186 0.0 6.0 0.00 0.00 0.00 50 1016.3
20260507222404 66 186 0.0 6.0 0.00 0.00 0.00 50 1016.4
20260507222306 66 186 0.0 6.0 0.00 0.00 0.00 50 1016.4
20260507222225 66 186 0.0 6.0 0.00 0.00 0.00 50 1016.4
20260507222104 66 184 0.0 6.0 0.00 0.00 0.00 50 1016.3
20260507222004 66 184 0.0 6.0 0.00 0.00 0.00 50 1016.3
20260507221904 66 185 0.0 10.0 0.00 0.00 0.00 50 1016.3
20260507221804 66 180 0.0 10.0 0.00 0.00 0.00 50 1016.2
20260507221704 66 178 0.0 10.0 0.00 0.00 0.00 49 1016.2
20260507221605 66 178 0.0 10.0 0.00 0.00 0.00 50 1016.2
20260507221504 66 181 0.0 10.0 0.00 0.00 0.00 50 1016.2
20260507221404 66 177 0.0 10.0 0.00 0.00 0.00 49 1016.2
20260507221325 66 174 0.0 10.0 0.00 0.00 0.00 50 1016.2
20260507221204 66 171 1.0 10.0 0.00 0.00 0.00 49 1016.2
20260507221104 66 170 1.0 10.0 0.00 0.00 0.00 49 1016.3
20260507221004 66 172 1.0 10.0 0.00 0.00 0.00 49 1016.2
20260507220904 66 170 2.0 9.0 0.00 0.00 0.00 49 1016.2
20260507220804 66 167 2.0 9.0 0.00 0.00 0.00 50 1016.2
20260507220704 66 166 3.0 10.0 0.00 0.00 0.00 49 1016.1
20260507220625 66 169 3.0 10.0 0.00 0.00 0.00 50 1016.1
20260507220525 66 168 3.0 10.0 0.00 0.00 0.00 50 1016.1
20260507220404 66 168 3.0 10.0 0.00 0.00 0.00 49 1016.1
20260507220304 66 169 3.0 10.0 0.00 0.00 0.00 49 1016.1
20260507220204 66 170 3.0 10.0 0.00 0.00 0.00 49 1016.1
20260507220104 67 170 3.0 10.0 0.00 0.00 0.00 49 1016.1
20260507220025 67 171 2.0 10.0 0.00 0.00 0.00 49 1016.1
20260507215904 67 170 2.0 10.0 0.00 0.00 0.00 49 1016.0
20260507215804 67 174 1.0 10.0 0.00 0.00 0.00 49 1016.0
20260507215704 67 175 2.0 9.0 0.00 0.00 0.00 49 1016.0
20260507215604 67 165 2.0 13.0 0.00 0.00 0.00 49 1016.0
20260507215525 67 167 2.0 13.0 0.00 0.00 0.00 49 1016.0
20260507215404 67 162 3.0 13.0 0.00 0.00 0.00 49 1016.0
20260507215325 67 162 3.0 13.0 0.00 0.00 0.00 49 1016.0
20260507215204 67 161 3.0 13.0 0.00 0.00 0.00 49 1016.0
20260507215104 67 161 3.0 13.0 0.00 0.00 0.00 49 1016.0
20260507215004 67 161 3.0 13.0 0.00 0.00 0.00 49 1016.1
20260507214904 67 161 3.0 13.0 0.00 0.00 0.00 49 1016.2
20260507214804 67 161 3.0 13.0 0.00 0.00 0.00 49 1016.2
20260507214704 67 160 3.0 13.0 0.00 0.00 0.00 49 1016.3
20260507214604 67 162 2.0 11.0 0.00 0.00 0.00 49 1016.3
20260507214504 67 164 1.0 11.0 0.00 0.00 0.00 48 1016.2
20260507214404 67 171 1.0 10.0 0.00 0.00 0.00 49 1016.2
20260507214304 67 179 1.0 10.0 0.00 0.00 0.00 48 1016.1
20260507214204 67 196 1.0 7.0 0.00 0.00 0.00 48 1016.1
20260507214104 67 194 1.0 7.0 0.00 0.00 0.00 48 1016.1
20260507214004 67 192 1.0 7.0 0.00 0.00 0.00 48 1016.2
20260507213904 67 194 1.0 7.0 0.00 0.00 0.00 48 1016.1
20260507213804 67 192 1.0 7.0 0.00 0.00 0.00 48 1016.1
20260507213704 67 185 1.0 7.0 0.00 0.00 0.00 48 1016.1
20260507213605 67 185 1.0 7.0 0.00 0.00 0.00 48 1016.0
20260507213525 67 185 1.0 7.0 0.00 0.00 0.00 48 1015.9
20260507213404 67 183 1.0 7.0 0.00 0.00 0.00 47 1015.9
20260507213304 67 176 1.0 7.0 0.00 0.00 0.00 47 1015.8
20260507213204 67 170 1.0 8.0 0.00 0.00 0.00 47 1015.9
20260507213104 67 169 1.0 8.0 0.00 0.00 0.00 47 1015.9
20260507213025 67 169 1.0 8.0 0.00 0.00 0.00 47 1016.0
20260507212905 67 171 1.0 8.0 0.00 0.00 0.00 47 1016.1
20260507212804 67 168 1.0 8.0 0.00 0.00 0.00 48 1016.2
20260507212704 67 173 1.0 8.0 0.00 0.00 0.00 47 1016.1
20260507212625 67 171 1.0 8.0 0.00 0.00 0.00 47 1016.1
20260507212504 67 160 1.0 12.0 0.00 0.00 0.00 47 1016.0
20260507212404 67 160 1.0 12.0 0.00 0.00 0.00 47 1016.0
20260507212325 67 161 1.0 12.0 0.00 0.00 0.00 47 1015.9
20260507212225 66 165 1.0 12.0 0.00 0.00 0.00 47 1015.9
20260507212104 66 169 1.0 12.0 0.00 0.00 0.00 47 1015.8
20260507212025 66 172 1.0 12.0 0.00 0.00 0.00 47 1015.7
20260507211904 66 171 2.0 12.0 0.00 0.00 0.00 47 1015.7
20260507211825 66 170 2.0 12.0 0.00 0.00 0.00 47 1015.7
20260507211704 66 171 2.0 12.0 0.00 0.00 0.00 47 1015.7
20260507211604 66 170 2.0 11.0 0.00 0.00 0.00 47 1015.7
20260507211504 66 174 2.0 9.0 0.00 0.00 0.00 47 1015.7
20260507211404 66 177 2.0 9.0 0.00 0.00 0.00 47 1015.7
20260507211304 65 176 2.0 9.0 0.00 0.00 0.00 48 1015.8
20260507211204 65 174 2.0 9.0 0.00 0.00 0.00 47 1015.8
20260507211104 65 174 2.0 9.0 0.00 0.00 0.00 47 1015.8
20260507211004 65 172 2.0 9.0 0.00 0.00 0.00 47 1015.8
20260507210925 65 173 2.0 9.0 0.00 0.00 0.00 47 1015.9
20260507210825 65 175 2.0 9.0 0.00 0.00 0.00 47 1016.0
20260507210704 65 178 2.0 9.0 0.00 0.00 0.00 47 1016.0
20260507210604 65 179 2.0 9.0 0.00 0.00 0.00 47 1016.1
20260507210504 65 183 1.0 9.0 0.00 0.00 0.00 48 1016.2
20260507210404 65 183 1.0 6.0 0.00 0.00 0.00 47 1016.2
20260507210304 65 184 1.0 6.0 0.00 0.00 0.00 47 1016.3
20260507210204 65 187 1.0 6.0 0.00 0.00 0.00 47 1016.3
20260507210104 65 186 1.0 6.0 0.00 0.00 0.00 47 1016.3
20260507210005 65 186 1.0 6.0 0.00 0.00 0.00 48 1016.4
20260507205904 65 184 1.0 6.0 0.00 0.00 0.00 47 1016.3
20260507205804 65 183 1.0 6.0 0.00 0.00 0.00 48 1016.3
20260507205704 65 181 1.0 6.0 0.00 0.00 0.00 47 1016.3
20260507205604 65 181 0.0 6.0 0.00 0.00 0.00 48 1016.3
20260507205504 65 186 0.0 6.0 0.00 0.00 0.00 48 1016.3
20260507205404 65 188 0.0 6.0 0.00 0.00 0.00 47 1016.4
20260507205306 65 190 0.0 6.0 0.00 0.00 0.00 47 1016.4
20260507205225 65 196 0.0 3.0 0.00 0.00 0.00 47 1016.5
20260507205125 65 189 0.0 3.0 0.00 0.00 0.00 47 1016.6
20260507205004 65 171 0.0 7.0 0.00 0.00 0.00 47 1016.7
20260507204904 65 171 0.0 7.0 0.00 0.00 0.00 47 1016.8
20260507204825 65 171 0.0 7.0 0.00 0.00 0.00 47 1016.9
20260507204704 65 169 0.0 7.0 0.00 0.00 0.00 47 1016.9
20260507204604 65 171 0.0 7.0 0.00 0.00 0.00 47 1017.0
20260507204505 65 170 0.0 7.0 0.00 0.00 0.00 47 1017.1
20260507204404 65 166 0.0 7.0 0.00 0.00 0.00 47 1017.1
20260507204304 65 166 0.0 7.0 0.00 0.00 0.00 47 1017.1
20260507204204 65 166 0.0 7.0 0.00 0.00 0.00 47 1017.1
20260507204104 65 166 0.0 7.0 0.00 0.00 0.00 47 1017.1
20260507204025 65 178 0.0 7.0 0.00 0.00 0.00 47 1017.1
20260507203904 65 197 0.0 4.0 0.00 0.00 0.00 47 1017.2
20260507203804 65 197 0.0 4.0 0.00 0.00 0.00 47 1017.2
20260507203705 65 201 0.0 4.0 0.00 0.00 0.00 46 1017.2
20260507203604 65 198 0.0 4.0 0.00 0.00 0.00 47 1017.1
20260507203504 65 196 0.0 4.0 0.00 0.00 0.00 46 1017.0
20260507203404 65 196 0.0 4.0 0.00 0.00 0.00 47 1017.1
20260507203304 65 196 0.0 4.0 0.00 0.00 0.00 47 1017.0
20260507203204 65 196 0.0 4.0 0.00 0.00 0.00 47 1017.0
20260507203104 65 200 0.0 4.0 0.00 0.00 0.00 46 1017.0
20260507203004 65 186 0.0 3.0 0.00 0.00 0.00 46 1016.9
20260507202904 65 198 0.0 3.0 0.00 0.00 0.00 46 1016.9
20260507202804 65 200 0.0 3.0 0.00 0.00 0.00 46 1016.9
20260507202704 65 202 0.0 3.0 0.00 0.00 0.00 46 1017.0
20260507202604 65 207 0.0 3.0 0.00 0.00 0.00 46 1017.0
20260507202525 65 204 0.0 3.0 0.00 0.00 0.00 46 1016.9
20260507202404 65 194 0.0 6.0 0.00 0.00 0.00 46 1016.9
20260507202325 65 196 0.0 6.0 0.00 0.00 0.00 46 1016.9
20260507202204 65 196 0.0 6.0 0.00 0.00 0.00 47 1016.9
20260507202104 65 196 0.0 6.0 0.00 0.00 0.00 46 1016.9
20260507202004 65 195 0.0 6.0 0.00 0.00 0.00 46 1016.9
20260507201925 65 190 0.0 6.0 0.00 0.00 0.00 46 1017.0
20260507201804 65 190 0.0 6.0 0.00 0.00 0.00 46 1017.0
20260507201725 65 188 0.0 6.0 0.00 0.00 0.00 46 1016.9
20260507201625 65 187 0.0 6.0 0.00 0.00 0.00 46 1017.0
20260507201504 65 190 0.0 6.0 0.00 0.00 0.00 46 1017.0
20260507201426 65 193 0.0 5.0 0.00 0.00 0.00 46 1017.0
20260507201304 65 198 0.0 5.0 0.00 0.00 0.00 46 1017.0
20260507201204 65 198 0.0 5.0 0.00 0.00 0.00 46 1016.9
20260507201104 65 196 0.0 7.0 0.00 0.00 0.00 46 1016.9
20260507201004 65 196 0.0 7.0 0.00 0.00 0.00 46 1016.9
20260507200904 65 195 0.0 7.0 0.00 0.00 0.00 46 1016.8
20260507200804 65 211 0.0 7.0 0.00 0.00 0.00 46 1016.9
20260507200725 65 213 0.0 7.0 0.00 0.00 0.00 46 1017.0
20260507200604 65 200 0.0 7.0 0.00 0.00 0.00 45 1017.1
20260507200504 65 198 0.0 7.0 0.00 0.00 0.00 45 1017.2
20260507200404 65 190 0.0 7.0 0.00 0.00 0.00 45 1017.3
20260507200304 65 191 0.0 7.0 0.00 0.00 0.00 45 1017.4
20260507200204 64 193 1.0 7.0 0.00 0.00 0.00 45 1017.4
20260507200125 64 192 1.0 7.0 0.00 0.00 0.00 46 1017.5
20260507200004 64 192 1.0 7.0 0.00 0.00 0.00 46 1017.4
20260507195904 64 191 1.0 7.0 0.00 0.00 0.00 45 1017.5
20260507195804 64 189 1.0 7.0 0.00 0.00 0.00 45 1017.5
20260507195704 64 188 1.0 7.0 0.00 0.00 0.00 46 1017.5
20260507195604 64 189 1.0 7.0 0.00 0.00 0.00 45 1017.3
20260507195504 64 189 1.0 7.0 0.00 0.00 0.00 45 1017.3
20260507195404 64 189 1.0 7.0 0.00 0.00 0.00 45 1017.3
20260507195306 64 189 1.0 7.0 0.00 0.00 0.00 45 1017.3
20260507195225 64 190 1.0 7.0 0.00 0.00 0.00 45 1017.3
20260507195104 64 190 1.0 7.0 0.00 0.00 0.00 44 1017.2
20260507195004 64 189 1.0 7.0 0.00 0.00 0.00 44 1017.2
20260507194904 64 191 0.0 7.0 0.00 0.00 0.00 44 1017.1
20260507194804 64 192 0.0 7.0 0.00 0.00 0.00 44 1017.1
20260507194725 64 195 0.0 7.0 0.00 0.00 0.00 44 1017.2
20260507194604 64 200 0.0 7.0 0.00 0.00 0.00 44 1017.1
20260507194525 64 193 0.0 7.0 0.00 0.00 0.00 44 1017.1
20260507194404 64 196 0.0 7.0 0.00 0.00 0.00 44 1017.2
20260507194325 64 199 0.0 7.0 0.00 0.00 0.00 44 1017.2
20260507194204 64 192 0.0 4.0 0.00 0.00 0.00 44 1017.2
20260507194125 64 192 0.0 4.0 0.00 0.00 0.00 44 1017.2
20260507194025 64 191 0.0 4.0 0.00 0.00 0.00 44 1017.2
20260507193904 64 192 0.0 4.0 0.00 0.00 0.00 44 1017.2
20260507193825 64 191 0.0 4.0 0.00 0.00 0.00 43 1017.3
20260507193704 64 179 0.0 4.0 0.00 0.00 0.00 43 1017.3
20260507193604 64 179 0.0 4.0 0.00 0.00 0.00 43 1017.3
20260507193504 64 194 0.0 3.0 0.00 0.00 0.00 43 1017.3
20260507193404 64 194 0.0 3.0 0.00 0.00 0.00 43 1017.3
20260507193304 64 194 0.0 3.0 0.00 0.00 0.00 43 1017.4
20260507193204 64 194 0.0 3.0 0.00 0.00 0.00 43 1017.4
20260507193104 64 209 0.0 1.0 0.00 0.00 0.00 43 1017.4
20260507193004 65 213 0.0 1.0 0.00 0.00 0.00 42 1017.4
20260507192904 64 220 0.0 7.0 0.00 0.00 0.00 42 1017.5
20260507192804 64 219 0.0 10.0 0.00 0.00 0.00 42 1017.5
20260507192704 64 213 1.0 10.0 0.00 0.00 0.00 42 1017.6
20260507192625 64 204 1.0 10.0 0.00 0.00 0.00 43 1017.8
20260507192504 64 196 2.0 10.0 0.00 0.00 0.00 42 1017.7
20260507192404 64 196 2.0 10.0 0.00 0.00 0.00 42 1017.7
20260507192306 64 191 3.0 10.0 0.00 0.00 0.00 43 1017.6
20260507192225 64 191 3.0 10.0 0.00 0.00 0.00 43 1017.6
20260507192104 64 192 3.0 10.0 0.00 0.00 0.00 43 1017.5
20260507192025 64 193 4.0 10.0 0.00 0.00 0.00 43 1017.4
20260507191925 64 198 4.0 10.0 0.00 0.00 0.00 43 1017.3
20260507191804 64 198 4.0 10.0 0.00 0.00 0.00 43 1017.4
20260507191725 64 197 4.0 10.0 0.00 0.00 0.00 43 1017.3
20260507191604 64 200 4.0 10.0 0.00 0.00 0.00 43 1017.4
20260507191504 64 204 5.0 10.0 0.00 0.00 0.00 43 1017.5
20260507191425 64 207 5.0 10.0 0.00 0.00 0.00 43 1017.6
20260507191304 64 212 5.0 11.0 0.00 0.00 0.00 42 1017.7
20260507191225 64 213 5.0 11.0 0.00 0.00 0.00 42 1017.7
20260507191104 64 216 6.0 13.0 0.00 0.00 0.00 43 1017.7
20260507191025 64 214 6.0 13.0 0.00 0.00 0.00 42 1017.7
20260507190904 64 211 6.0 13.0 0.00 0.00 0.00 42 1017.6
20260507190825 64 211 6.0 13.0 0.00 0.00 0.00 43 1017.5
20260507190705 64 210 7.0 13.0 0.00 0.00 0.00 43 1017.4
20260507190604 64 209 7.0 13.0 0.00 0.00 0.00 43 1017.3
20260507190504 64 208 6.0 13.0 0.00 0.00 0.00 43 1017.4
20260507190404 64 210 6.0 13.0 0.00 0.00 0.00 43 1017.4
20260507190304 64 209 6.0 13.0 0.00 0.00 0.00 43 1017.5
20260507190204 64 210 6.0 13.0 0.00 0.00 0.00 43 1017.7
20260507190104 64 210 6.0 11.0 0.00 0.00 0.00 43 1017.8
20260507190005 64 211 6.0 11.0 0.00 0.00 0.00 42 1017.9
20260507185925 64 210 5.0 11.0 0.00 0.00 0.00 42 1018.0
20260507185804 64 206 5.0 11.0 0.00 0.00 0.00 42 1017.9
20260507185704 64 207 5.0 11.0 0.00 0.00 0.00 42 1017.9
20260507185604 64 205 5.0 10.0 0.00 0.00 0.00 41 1017.8
20260507185525 64 204 5.0 10.0 0.00 0.00 0.00 41 1017.7
20260507185404 64 201 5.0 10.0 0.00 0.00 0.00 42 1017.7
20260507185306 64 201 5.0 10.0 0.00 0.00 0.00 42 1017.8
20260507185204 64 200 5.0 10.0 0.00 0.00 0.00 42 1017.8
20260507185104 64 198 5.0 10.0 0.00 0.00 0.00 42 1017.9
20260507185004 64 196 6.0 10.0 0.00 0.00 0.00 41 1017.9
20260507184904 64 199 6.0 10.0 0.00 0.00 0.00 42 1017.9
20260507184804 64 201 6.0 10.0 0.00 0.00 0.00 42 1017.9
20260507184704 64 202 6.0 11.0 0.00 0.00 0.00 42 1017.9
20260507184604 64 205 6.0 11.0 0.00 0.00 0.00 42 1018.0
20260507184504 64 206 6.0 11.0 0.00 0.00 0.00 42 1018.0
20260507184404 64 204 6.0 11.0 0.00 0.00 0.00 42 1018.0
20260507184304 64 204 6.0 11.0 0.00 0.00 0.00 42 1018.1
20260507184204 64 203 5.0 11.0 0.00 0.00 0.00 42 1018.1
20260507184104 64 203 5.0 11.0 0.00 0.00 0.00 41 1018.1
20260507184025 64 207 5.0 11.0 0.00 0.00 0.00 42 1018.1
20260507183904 64 208 5.0 11.0 0.00 0.00 0.00 41 1018.2
20260507183804 64 205 5.0 11.0 0.00 0.00 0.00 41 1018.1
20260507183704 64 200 6.0 13.0 0.00 0.00 0.00 41 1018.1
20260507183625 64 198 6.0 13.0 0.00 0.00 0.00 41 1018.1
20260507183504 64 198 6.0 13.0 0.00 0.00 0.00 40 1018.1
20260507183425 64 198 6.0 13.0 0.00 0.00 0.00 40 1018.1
20260507183304 64 198 6.0 13.0 0.00 0.00 0.00 40 1018.1
20260507183204 64 199 6.0 13.0 0.00 0.00 0.00 40 1018.1
20260507183104 64 197 6.0 14.0 0.00 0.00 0.00 40 1018.0
20260507183004 64 195 6.0 14.0 0.00 0.00 0.00 40 1018.1
20260507182904 64 194 7.0 14.0 0.00 0.00 0.00 40 1018.0
20260507182804 64 194 6.0 14.0 0.00 0.00 0.00 40 1018.0
20260507182704 64 197 5.0 14.0 0.00 0.00 0.00 39 1017.9
20260507182604 64 198 5.0 14.0 0.00 0.00 0.00 38 1017.9
20260507182504 64 197 4.0 14.0 0.00 0.00 0.00 38 1017.9
20260507182404 64 196 4.0 14.0 0.00 0.00 0.00 38 1017.9
20260507182306 64 194 3.0 14.0 0.00 0.00 0.00 38 1017.9
20260507182204 64 188 3.0 14.0 0.00 0.00 0.00 38 1018.0
20260507182104 64 188 2.0 13.0 0.00 0.00 0.00 38 1018.0
20260507182004 64 189 1.0 13.0 0.00 0.00 0.00 38 1018.0
20260507181904 64 184 1.0 13.0 0.00 0.00 0.00 38 1018.0
20260507181804 64 201 1.0 7.0 0.00 0.00 0.00 38 1018.1
20260507181704 64 198 0.0 7.0 0.00 0.00 0.00 36 1018.2
20260507181625 64 199 1.0 7.0 0.00 0.00 0.00 37 1018.2
20260507181504 63 204 1.0 9.0 0.00 0.00 0.00 36 1018.3
20260507181425 63 205 1.0 9.0 0.00 0.00 0.00 36 1018.2
20260507181304 63 205 1.0 9.0 0.00 0.00 0.00 37 1018.2
20260507181225 63 205 1.0 9.0 0.00 0.00 0.00 37 1018.0
20260507181104 63 205 1.0 9.0 0.00 0.00 0.00 37 1018.0
20260507181004 63 204 1.0 9.0 0.00 0.00 0.00 37 1018.0
20260507180904 63 205 1.0 9.0 0.00 0.00 0.00 37 1017.9
20260507180804 63 205 1.0 9.0 0.00 0.00 0.00 36 1017.8
20260507180704 63 208 1.0 9.0 0.00 0.00 0.00 36 1017.8
20260507180604 63 208 1.0 9.0 0.00 0.00 0.00 37 1017.7
20260507180504 63 206 1.0 7.0 0.00 0.00 0.00 37 1017.8
20260507180404 63 204 1.0 7.0 0.00 0.00 0.00 37 1017.8
20260507180304 63 205 1.0 7.0 0.00 0.00 0.00 36 1017.8
20260507180204 63 206 1.0 7.0 0.00 0.00 0.00 36 1017.7
20260507180104 63 204 1.0 7.0 0.00 0.00 0.00 37 1017.7
20260507180004 63 205 1.0 7.0 0.00 0.00 0.00 37 1017.7
20260507175925 63 205 1.0 7.0 0.00 0.00 0.00 37 1017.7
20260507175804 63 204 0.0 5.0 0.00 0.00 0.00 36 1017.7
20260507175726 63 204 0.0 5.0 0.00 0.00 0.00 36 1017.8
20260507175625 63 210 0.0 5.0 0.00 0.00 0.00 36 1017.8
20260507175504 63 212 0.0 5.0 0.00 0.00 0.00 34 1017.9
20260507175404 63 219 0.0 3.0 0.00 0.00 0.00 34 1017.9
20260507175307 63 216 0.0 3.0 0.00 0.00 0.00 34 1018.0
20260507175204 63 218 0.0 4.0 0.00 0.00 0.00 34 1018.0
20260507175104 63 220 0.0 8.0 0.00 0.00 0.00 33 1018.1
20260507175025 63 221 0.0 8.0 0.00 0.00 0.00 33 1018.1
20260507174904 63 221 0.0 8.0 0.00 0.00 0.00 34 1018.1
20260507174825 63 220 0.0 8.0 0.00 0.00 0.00 33 1018.1
20260507174704 62 221 1.0 8.0 0.00 0.00 0.00 34 1018.0
20260507174604 62 219 1.0 8.0 0.00 0.00 0.00 33 1018.1
20260507174504 62 220 1.0 8.0 0.00 0.00 0.00 34 1018.1
20260507174405 62 219 1.0 8.0 0.00 0.00 0.00 34 1018.1
20260507174304 62 219 1.0 8.0 0.00 0.00 0.00 35 1018.0
20260507174204 62 219 0.0 8.0 0.00 0.00 0.00 34 1018.0
20260507174104 62 219 0.0 7.0 0.00 0.00 0.00 34 1018.0
20260507174004 62 219 0.0 7.0 0.00 0.00 0.00 34 1017.8
20260507173904 62 218 1.0 6.0 0.00 0.00 0.00 33 1017.8
20260507173804 62 217 1.0 8.0 0.00 0.00 0.00 34 1017.9
20260507173704 62 215 0.0 8.0 0.00 0.00 0.00 33 1018.1
20260507173604 62 216 0.0 8.0 0.00 0.00 0.00 32 1018.2
20260507173525 62 216 0.0 8.0 0.00 0.00 0.00 33 1018.2
20260507173404 62 218 0.0 8.0 0.00 0.00 0.00 33 1018.2
20260507173304 62 217 0.0 8.0 0.00 0.00 0.00 33 1018.2
20260507173204 62 218 0.0 8.0 0.00 0.00 0.00 34 1018.2
20260507173125 62 215 0.0 8.0 0.00 0.00 0.00 34 1018.2
20260507173004 62 214 0.0 8.0 0.00 0.00 0.00 33 1018.2
20260507172904 62 211 0.0 8.0 0.00 0.00 0.00 31 1018.1
20260507172804 62 221 0.0 5.0 0.00 0.00 0.00 31 1017.9
20260507172725 62 220 0.0 5.0 0.00 0.00 0.00 31 1017.8
20260507172604 62 214 0.0 5.0 0.00 0.00 0.00 32 1017.8
20260507172504 62 219 0.0 5.0 0.00 0.00 0.00 32 1017.8
20260507172404 62 222 0.0 5.0 0.00 0.00 0.00 33 1018.0
20260507172307 62 227 0.0 5.0 0.00 0.00 0.00 34 1018.2
20260507172204 62 227 0.0 5.0 0.00 0.00 0.00 33 1018.2
20260507172104 62 218 0.0 12.0 0.00 0.00 0.00 32 1018.1
20260507172004 62 217 0.0 12.0 0.00 0.00 0.00 33 1018.0
20260507171904 62 215 1.0 12.0 0.00 0.00 0.00 33 1017.9
20260507171804 62 202 1.0 12.0 0.00 0.00 0.00 33 1018.0
20260507171704 62 201 1.0 12.0 0.00 0.00 0.00 32 1018.0
20260507171604 62 200 1.0 12.0 0.00 0.00 0.00 32 1018.0
20260507171504 62 196 1.0 12.0 0.00 0.00 0.00 32 1017.9
20260507171404 62 195 1.0 12.0 0.00 0.00 0.00 32 1017.8
20260507171304 62 191 1.0 12.0 0.00 0.00 0.00 33 1018.0
20260507171204 62 192 1.0 12.0 0.00 0.00 0.00 32 1018.2
20260507171104 62 191 0.0 12.0 0.00 0.00 0.00 32 1018.4
20260507171004 62 183 0.0 7.0 0.00 0.00 0.00 32 1018.7
20260507170904 62 180 0.0 7.0 0.00 0.00 0.00 32 1018.8
20260507170804 62 203 0.0 4.0 0.00 0.00 0.00 31 1018.8
20260507170704 62 205 0.0 4.0 0.00 0.00 0.00 31 1018.8
20260507170604 62 202 0.0 4.0 0.00 0.00 0.00 31 1018.7
20260507170504 62 205 0.0 6.0 0.00 0.00 0.00 32 1018.6
20260507170404 62 203 0.0 6.0 0.00 0.00 0.00 31 1018.6
20260507170304 62 202 0.0 6.0 0.00 0.00 0.00 30 1018.5
20260507170204 62 211 1.0 11.0 0.00 0.00 0.00 30 1018.5
20260507170104 62 215 1.0 11.0 0.00 0.00 0.00 30 1018.6
20260507170025 62 215 1.0 11.0 0.00 0.00 0.00 29 1018.5
20260507165904 62 214 1.0 11.0 0.00 0.00 0.00 30 1018.4
20260507165804 62 213 1.0 11.0 0.00 0.00 0.00 30 1018.5
20260507165704 62 210 2.0 11.0 0.00 0.00 0.00 29 1018.5
20260507165604 62 209 2.0 11.0 0.00 0.00 0.00 29 1018.5
20260507165525 61 209 2.0 11.0 0.00 0.00 0.00 29 1018.4
20260507165425 61 210 2.0 11.0 0.00 0.00 0.00 29 1018.2
20260507165306 61 209 2.0 11.0 0.00 0.00 0.00 29 1018.0
20260507165204 61 205 1.0 11.0 0.00 0.00 0.00 28 1018.0
20260507165104 61 202 1.0 11.0 0.00 0.00 0.00 28 1018.0
20260507165004 61 202 1.0 11.0 0.00 0.00 0.00 28 1018.1
20260507164904 61 194 1.0 9.0 0.00 0.00 0.00 28 1018.2
20260507164825 61 194 1.0 9.0 0.00 0.00 0.00 28 1018.3
20260507164704 61 194 1.0 9.0 0.00 0.00 0.00 24 1018.3
20260507164605 61 194 1.0 8.0 0.00 0.00 0.00 24 1018.2
20260507164504 61 194 1.0 8.0 0.00 0.00 0.00 23 1018.2
20260507164404 61 193 1.0 8.0 0.00 0.00 0.00 23 1018.2
20260507164304 60 193 1.0 8.0 0.00 0.00 0.00 22 1018.4
20260507164225 60 193 1.0 8.0 0.00 0.00 0.00 23 1018.6
20260507164104 60 190 1.0 8.0 0.00 0.00 0.00 23 1018.8
20260507164004 60 191 1.0 8.0 0.00 0.00 0.00 23 1018.9
20260507163904 60 186 1.0 8.0 0.00 0.00 0.00 23 1018.9
20260507163804 60 182 1.0 8.0 0.00 0.00 0.00 23 1018.9
20260507163704 60 179 0.0 8.0 0.00 0.00 0.00 22 1018.9
20260507163604 60 176 1.0 9.0 0.00 0.00 0.00 22 1019.1
20260507163504 60 165 1.0 9.0 0.00 0.00 0.00 20 1019.3
20260507163404 60 163 1.0 11.0 0.00 0.00 0.00 20 1019.5
20260507163325 60 163 1.0 11.0 0.00 0.00 0.00 20 1019.6
20260507163204 60 162 1.0 11.0 0.00 0.00 0.00 21 1019.7
20260507163104 60 162 1.0 11.0 0.00 0.00 0.00 22 1019.8
20260507163004 60 161 1.0 11.0 0.00 0.00 0.00 23 1019.9
20260507162904 60 164 1.0 11.0 0.00 0.00 0.00 24 1019.8
20260507162804 60 167 1.0 11.0 0.00 0.00 0.00 24 1019.7
20260507162704 60 167 1.0 11.0 0.00 0.00 0.00 24 1019.6
20260507162604 60 164 1.0 11.0 0.00 0.00 0.00 24 1019.7
20260507162504 60 165 0.0 11.0 0.00 0.00 0.00 22 1019.8
20260507162404 60 174 0.0 6.0 0.00 0.00 0.00 22 1019.8
20260507162307 60 175 0.0 6.0 0.00 0.00 0.00 21 1019.7
20260507162204 60 174 0.0 8.0 0.00 0.00 0.00 22 1019.4
20260507162104 60 173 0.0 8.0 0.00 0.00 0.00 23 1019.2
20260507162004 60 173 0.0 8.0 0.00 0.00 0.00 23 1019.1
20260507161904 60 172 0.0 8.0 0.00 0.00 0.00 23 1019.1
20260507161804 60 168 0.0 8.0 0.00 0.00 0.00 22 1019.1
20260507161704 60 171 0.0 8.0 0.00 0.00 0.00 22 1019.1
20260507161604 60 171 0.0 8.0 0.00 0.00 0.00 22 1019.3
20260507161525 60 171 0.0 8.0 0.00 0.00 0.00 22 1019.3
20260507161404 60 171 0.0 8.0 0.00 0.00 0.00 23 1019.4
20260507161304 60 180 0.0 8.0 0.00 0.00 0.00 24 1019.3
20260507161225 60 184 0.0 6.0 0.00 0.00 0.00 23 1019.3
20260507161104 60 196 0.0 6.0 0.00 0.00 0.00 23 1019.1
20260507161004 60 197 0.0 6.0 0.00 0.00 0.00 24 1019.1
20260507160904 60 191 1.0 8.0 0.00 0.00 0.00 24 1019.1
20260507160825 60 193 1.0 8.0 0.00 0.00 0.00 24 1019.1
20260507160704 60 193 1.0 8.0 0.00 0.00 0.00 24 1019.2
20260507160604 60 194 1.0 8.0 0.00 0.00 0.00 24 1019.3
20260507160504 60 194 1.0 8.0 0.00 0.00 0.00 24 1019.4
20260507160404 60 194 1.0 8.0 0.00 0.00 0.00 24 1019.4
20260507160304 60 194 1.0 8.0 0.00 0.00 0.00 23 1019.3
20260507160204 60 194 1.0 8.0 0.00 0.00 0.00 24 1019.1
20260507160125 60 193 1.0 8.0 0.00 0.00 0.00 24 1019.1
20260507160025 60 191 1.0 8.0 0.00 0.00 0.00 24 1019.1
20260507155904 60 197 0.0 8.0 0.00 0.00 0.00 22 1019.2
20260507155804 60 192 0.0 8.0 0.00 0.00 0.00 20 1019.2
20260507155704 60 193 0.0 8.0 0.00 0.00 0.00 19 1019.1
20260507155604 60 182 0.0 9.0 0.00 0.00 0.00 17 1019.2
20260507155504 60 185 0.0 9.0 0.00 0.00 0.00 16 1019.2
20260507155404 60 185 0.0 9.0 0.00 0.00 0.00 16 1019.3
20260507155306 60 185 0.0 9.0 0.00 0.00 0.00 17 1019.3
20260507155204 60 191 0.0 9.0 0.00 0.00 0.00 17 1019.3
20260507155104 60 193 0.0 9.0 0.00 0.00 0.00 17 1019.3
20260507155004 60 193 0.0 9.0 0.00 0.00 0.00 18 1019.5
20260507154904 60 191 0.0 9.0 0.00 0.00 0.00 18 1019.5
20260507154804 60 185 1.0 9.0 0.00 0.00 0.00 18 1019.5
20260507154704 60 179 1.0 9.0 0.00 0.00 0.00 18 1019.6
20260507154604 60 179 2.0 12.0 0.00 0.00 0.00 18 1019.6
20260507154504 60 179 2.0 12.0 0.00 0.00 0.00 17 1019.6
20260507154425 60 179 2.0 12.0 0.00 0.00 0.00 18 1019.5
20260507154325 60 179 2.0 12.0 0.00 0.00 0.00 18 1019.5
20260507154225 60 179 2.0 12.0 0.00 0.00 0.00 18 1019.4
20260507154104 60 180 2.0 12.0 0.00 0.00 0.00 17 1019.4
20260507154004 60 179 3.0 12.0 0.00 0.00 0.00 18 1019.3
20260507153904 60 179 2.0 12.0 0.00 0.00 0.00 16 1019.3
20260507153804 60 179 2.0 12.0 0.00 0.00 0.00 16 1019.3
20260507153705 60 181 1.0 12.0 0.00 0.00 0.00 16 1019.3
20260507153604 60 185 1.0 9.0 0.00 0.00 0.00 15 1019.3
20260507153525 60 184 1.0 9.0 0.00 0.00 0.00 14 1019.3
20260507153404 60 186 1.0 9.0 0.00 0.00 0.00 14 1019.2
20260507153304 60 189 1.0 9.0 0.00 0.00 0.00 13 1019.2
20260507153204 60 187 1.0 6.0 0.00 0.00 0.00 12 1019.2
20260507153125 60 188 0.0 6.0 0.00 0.00 0.00 11 1019.2
20260507153004 60 191 0.0 6.0 0.00 0.00 0.00 10 1019.3
20260507152904 60 189 1.0 10.0 0.00 0.00 0.00 9 1019.3
20260507152805 60 184 1.0 10.0 0.00 0.00 0.00 10 1019.3
20260507152704 60 181 1.0 10.0 0.00 0.00 0.00 9 1019.2
20260507152604 60 176 1.0 10.0 0.00 0.00 0.00 9 1019.2
20260507152504 60 176 1.0 10.0 0.00 0.00 0.00 8 1019.2
20260507152404 60 174 1.0 10.0 0.00 0.00 0.00 7 1019.1
20260507152306 60 171 1.0 10.0 0.00 0.00 0.00 6 1019.1
20260507152204 60 170 1.0 10.0 0.00 0.00 0.00 6 1019.2
20260507152104 60 168 1.0 10.0 0.00 0.00 0.00 5 1019.2
20260507152004 60 176 2.0 10.0 0.00 0.00 0.00 5 1019.2
20260507151904 60 184 2.0 15.0 0.00 0.00 0.00 4 1019.2
20260507151804 60 183 3.0 15.0 0.00 0.00 0.00 3 1019.2
20260507151704 60 184 4.0 15.0 0.00 0.00 0.00 2 1019.1
20260507151604 60 186 3.0 15.0 0.00 0.00 0.00 1 1019.1
20260507151504 60 186 4.0 15.0 0.00 0.00 0.00 1 1019.1
20260507151404 60 186 5.0 16.0 0.00 0.00 0.00 1 1019.1
20260507151304 60 185 5.0 16.0 0.00 0.00 0.00 1 1019.1
20260507151204 60 185 5.0 16.0 0.00 0.00 0.00 1 1019.1
20260507151104 60 185 5.0 16.0 0.00 0.00 0.00 1 1019.1
20260507151004 60 186 5.0 16.0 0.00 0.00 0.00 1 1019.1
20260507150904 60 183 4.0 16.0 0.00 0.00 0.00 1 1019.0
20260507150804 60 183 3.0 16.0 0.00 0.00 0.00 1 1019.1
20260507150704 60 183 3.0 16.0 0.00 0.00 0.00 1 1019.1
20260507150625 60 181 3.0 16.0 0.00 0.00 0.00 1 1019.1
20260507150525 60 179 2.0 16.0 0.00 0.00 0.00 1 1019.1
20260507150425 60 178 1.0 15.0 0.00 0.00 0.00 1 1019.1
20260507150304 60 176 1.0 9.0 0.00 0.00 0.00 1 1019.1
20260507150204 60 175 1.0 9.0 0.00 0.00 0.00 1 1019.1
20260507150125 60 174 1.0 9.0 0.00 0.00 0.00 1 1019.1
20260507150005 60 170 1.0 9.0 0.00 0.00 0.00 1 1019.2
20260507145925 60 168 1.0 9.0 0.00 0.00 0.00 1 1019.3
20260507145804 60 166 0.0 9.0 0.00 0.00 0.00 1 1019.3
20260507145725 60 166 0.0 9.0 0.00 0.00 0.00 1 1019.3
20260507145625 60 164 0.0 9.0 0.00 0.00 0.00 1 1019.3
20260507145504 60 191 0.0 7.0 0.00 0.00 0.00 1 1019.3
20260507145425 60 192 0.0 7.0 0.00 0.00 0.00 1 1019.2
20260507145325 60 192 0.0 7.0 0.00 0.00 0.00 1 1019.2
20260507145204 60 185 0.0 7.0 0.00 0.00 0.00 1 1019.2
20260507145125 60 185 0.0 7.0 0.00 0.00 0.00 1 1019.2
20260507145025 60 185 1.0 7.0 0.00 0.00 0.00 1 1019.2
20260507144904 60 181 1.0 7.0 0.00 0.00 0.00 1 1019.2
20260507144804 60 179 1.0 7.0 0.00 0.00 0.00 1 1019.2
20260507144704 60 183 1.0 7.0 0.00 0.00 0.00 1 1019.2
20260507144604 60 189 1.0 8.0 0.00 0.00 0.00 1 1019.2
20260507144504 60 187 1.0 8.0 0.00 0.00 0.00 1 1019.2
20260507144404 60 189 1.0 8.0 0.00 0.00 0.00 1 1019.1
20260507144304 60 190 1.0 8.0 0.00 0.00 0.00 1 1019.1
20260507144204 60 192 1.0 8.0 0.00 0.00 0.00 1 1019.2
20260507144104 60 184 2.0 12.0 0.00 0.00 0.00 1 1019.1
20260507144004 60 181 3.0 13.0 0.00 0.00 0.00 1 1019.1
20260507143904 60 183 4.0 13.0 0.00 0.00 0.00 1 1019.1
20260507143804 60 185 4.0 13.0 0.00 0.00 0.00 1 1019.0
20260507143704 60 185 5.0 13.0 0.00 0.00 0.00 1 1018.9
20260507143604 60 183 5.0 13.0 0.00 0.00 0.00 1 1018.8
20260507143504 60 185 6.0 15.0 0.00 0.00 0.00 1 1018.7
20260507143404 60 184 7.0 15.0 0.00 0.00 0.00 1 1018.7
20260507143304 60 185 7.0 15.0 0.00 0.00 0.00 1 1018.6
20260507143204 60 187 7.0 15.0 0.00 0.00 0.00 1 1018.5
20260507143104 60 189 7.0 15.0 0.00 0.00 0.00 1 1018.4
20260507143004 60 192 6.0 15.0 0.00 0.00 0.00 1 1018.5
20260507142904 60 192 5.0 15.0 0.00 0.00 0.00 1 1018.5
20260507142804 60 192 4.0 15.0 0.00 0.00 0.00 1 1018.6
20260507142704 60 191 4.0 15.0 0.00 0.00 0.00 1 1018.6
20260507142625 60 195 3.0 15.0 0.00 0.00 0.00 1 1018.7
20260507142504 60 192 3.0 9.0 0.00 0.00 0.00 1 1018.7
20260507142404 60 195 2.0 9.0 0.00 0.00 0.00 1 1018.7
20260507142306 60 192 2.0 9.0 0.00 0.00 0.00 1 1018.7
20260507142204 60 183 1.0 9.0 0.00 0.00 0.00 1 1018.7
20260507142104 60 178 1.0 9.0 0.00 0.00 0.00 1 1018.7
20260507142025 60 178 1.0 9.0 0.00 0.00 0.00 1 1018.7
20260507141904 60 183 2.0 10.0 0.00 0.00 0.00 1 1018.7
20260507141804 60 183 2.0 10.0 0.00 0.00 0.00 1 1018.8
20260507141704 60 183 2.0 10.0 0.00 0.00 0.00 1 1018.7
20260507141604 60 186 2.0 12.0 0.00 0.00 0.00 1 1018.8
20260507141504 60 191 2.0 12.0 0.00 0.00 0.00 1 1018.8
20260507141404 60 191 3.0 12.0 0.00 0.00 0.00 1 1018.8
20260507141304 60 189 3.0 12.0 0.00 0.00 0.00 1 1018.9
20260507141204 60 187 3.0 12.0 0.00 0.00 0.00 1 1018.9
20260507141104 60 188 3.0 12.0 0.00 0.00 0.00 1 1018.8
20260507141004 60 188 3.0 12.0 0.00 0.00 0.00 1 1018.8
20260507140925 60 186 2.0 12.0 0.00 0.00 0.00 1 1018.8
20260507140804 60 187 2.0 12.0 0.00 0.00 0.00 1 1018.9
20260507140704 60 187 2.0 12.0 0.00 0.00 0.00 1 1018.9
20260507140604 60 184 2.0 11.0 0.00 0.00 0.00 1 1019.0
20260507140525 60 182 2.0 11.0 0.00 0.00 0.00 1 1018.9
20260507140404 60 179 1.0 10.0 0.00 0.00 0.00 1 1018.9
20260507140304 60 184 1.0 10.0 0.00 0.00 0.00 1 1018.9
20260507140204 60 185 2.0 10.0 0.00 0.00 0.00 1 1018.8
20260507140104 60 179 2.0 13.0 0.00 0.00 0.00 1 1018.8
20260507140004 60 178 3.0 13.0 0.00 0.00 0.00 1 1018.7
20260507135904 60 179 3.0 13.0 0.00 0.00 0.00 1 1018.6
20260507135804 60 179 4.0 16.0 0.00 0.00 0.00 1 1018.5
20260507135704 60 178 5.0 16.0 0.00 0.00 0.00 1 1018.3
20260507135604 60 179 6.0 16.0 0.00 0.00 0.00 1 1018.3
20260507135504 60 180 6.0 16.0 0.00 0.00 0.00 1 1018.2
20260507135404 60 183 7.0 16.0 0.00 0.00 0.00 1 1018.2
20260507135306 60 184 8.0 16.0 0.00 0.00 0.00 1 1018.2
20260507135204 60 186 8.0 16.0 0.00 0.00 0.00 1 1018.1
20260507135104 60 187 9.0 19.0 0.00 0.00 0.00 1 1018.2
20260507135004 60 188 9.0 19.0 0.00 0.00 0.00 1 1018.1
20260507134904 60 187 9.0 19.0 0.00 0.00 0.00 1 1018.2
20260507134825 60 187 9.0 19.0 0.00 0.00 0.00 1 1018.1
20260507134704 60 187 8.0 19.0 0.00 0.00 0.00 1 1018.2
20260507134625 60 187 7.0 19.0 0.00 0.00 0.00 1 1018.2
20260507134504 60 187 7.0 19.0 0.00 0.00 0.00 1 1018.2
20260507134404 60 186 6.0 19.0 0.00 0.00 0.00 1 1018.3
20260507134304 60 185 6.0 19.0 0.00 0.00 0.00 1 1018.2
20260507134204 60 181 5.0 19.0 0.00 0.00 0.00 1 1018.3
20260507134125 60 179 4.0 18.0 0.00 0.00 0.00 1 1018.3
20260507134004 60 176 3.0 17.0 0.00 0.00 0.00 1 1018.2
20260507133904 60 174 3.0 17.0 0.00 0.00 0.00 1 1018.2
20260507133804 60 175 3.0 17.0 0.00 0.00 0.00 1 1018.2
20260507133725 60 175 3.0 17.0 0.00 0.00 0.00 1 1018.2
20260507133604 60 177 3.0 17.0 0.00 0.00 0.00 1 1018.3
20260507133525 60 178 3.0 17.0 0.00 0.00 0.00 1 1018.2
20260507133404 60 178 3.0 17.0 0.00 0.00 0.00 1 1018.2
20260507133304 60 179 3.0 17.0 0.00 0.00 0.00 1 1018.2
20260507133204 61 180 3.0 18.0 0.00 0.00 0.00 1 1018.2
20260507133104 61 188 3.0 18.0 0.00 0.00 0.00 1 1018.2
20260507133025 61 190 4.0 18.0 0.00 0.00 0.00 1 1018.2
20260507132925 61 193 4.0 18.0 0.00 0.00 0.00 1 1018.2
20260507132804 60 193 5.0 18.0 0.00 0.00 0.00 1 1018.2
20260507132704 60 191 6.0 18.0 0.00 0.00 0.00 1 1018.2
20260507132604 60 193 6.0 18.0 0.00 0.00 0.00 1 1018.3
20260507132525 60 192 7.0 18.0 0.00 0.00 0.00 1 1018.2
20260507132425 60 194 8.0 18.0 0.00 0.00 0.00 1 1018.2
20260507132307 60 193 9.0 18.0 0.00 0.00 0.00 1 1018.2
20260507132205 60 192 9.0 18.0 0.00 0.00 0.00 1 1018.2
20260507132125 60 191 9.0 18.0 0.00 0.00 0.00 1 1018.3
20260507132004 60 188 9.0 18.0 0.00 0.00 0.00 1 1018.3
20260507131905 60 187 9.0 18.0 0.00 0.00 0.00 1 1018.3
20260507131825 60 186 9.0 18.0 0.00 0.00 0.00 1 1018.4
20260507131704 60 186 8.0 18.0 0.00 0.00 0.00 1 1018.4
20260507131604 60 184 8.0 18.0 0.00 0.00 0.00 1 1018.4
20260507131504 60 183 8.0 18.0 0.00 0.00 0.00 1 1018.5
20260507131404 60 179 7.0 18.0 0.00 0.00 0.00 1 1018.5
20260507131304 60 180 6.0 17.0 0.00 0.00 0.00 1 1018.6
20260507131204 60 182 6.0 16.0 0.00 0.00 0.00 1 1018.6
20260507131104 60 181 6.0 16.0 0.00 0.00 0.00 1 1018.6
20260507131004 60 182 7.0 16.0 0.00 0.00 0.00 1 1018.6
20260507130904 60 183 7.0 16.0 0.00 0.00 0.00 1 1018.6
20260507130804 60 185 7.0 16.0 0.00 0.00 0.00 1 1018.6
20260507130704 60 185 7.0 16.0 0.00 0.00 0.00 1 1018.6
20260507130604 60 186 7.0 16.0 0.00 0.00 0.00 1 1018.5
20260507130504 60 186 8.0 17.0 0.00 0.00 0.00 1 1018.4
20260507130404 60 186 8.0 17.0 0.00 0.00 0.00 1 1018.4
20260507130304 60 186 7.0 17.0 0.00 0.00 0.00 1 1018.3
20260507130204 60 185 6.0 17.0 0.00 0.00 0.00 1 1018.2
20260507130104 60 185 6.0 17.0 0.00 0.00 0.00 1 1018.1
20260507130004 60 184 6.0 17.0 0.00 0.00 0.00 1 1018.1
20260507125904 60 183 6.0 17.0 0.00 0.00 0.00 1 1018.1
20260507125804 60 180 5.0 17.0 0.00 0.00 0.00 1 1018.1
20260507125704 60 180 5.0 17.0 0.00 0.00 0.00 1 1018.2
20260507125604 60 180 5.0 17.0 0.00 0.00 0.00 1 1018.3
20260507125504 60 178 5.0 15.0 0.00 0.00 0.00 1 1018.3
20260507125404 60 181 6.0 15.0 0.00 0.00 0.00 1 1018.3
20260507125306 60 183 7.0 15.0 0.00 0.00 0.00 1 1018.4
20260507125204 60 186 7.0 15.0 0.00 0.00 0.00 1 1018.4
20260507125104 60 185 8.0 15.0 0.00 0.00 0.00 1 1018.5
20260507125025 60 185 8.0 15.0 0.00 0.00 0.00 1 1018.5
20260507124904 60 186 8.0 15.0 0.00 0.00 0.00 1 1018.5
20260507124804 60 187 7.0 15.0 0.00 0.00 0.00 1 1018.4
20260507124704 60 188 8.0 15.0 0.00 0.00 0.00 1 1018.4
20260507124604 60 188 7.0 15.0 0.00 0.00 0.00 1 1018.4
20260507124504 60 188 7.0 15.0 0.00 0.00 0.00 1 1018.4
20260507124404 60 183 7.0 15.0 0.00 0.00 0.00 1 1018.5
20260507124304 60 179 7.0 15.0 0.00 0.00 0.00 1 1018.6
20260507124204 60 175 7.0 15.0 0.00 0.00 0.00 1 1018.5
20260507124104 60 174 7.0 15.0 0.00 0.00 0.00 1 1018.5
20260507124004 60 173 8.0 16.0 0.00 0.00 0.00 1 1018.4
20260507123904 60 172 8.0 16.0 0.00 0.00 0.00 1 1018.3
20260507123804 60 169 9.0 16.0 0.00 0.00 0.00 1 1018.3
20260507123704 60 169 9.0 16.0 0.00 0.00 0.00 1 1018.3
20260507123604 60 168 8.0 16.0 0.00 0.00 0.00 1 1018.3
20260507123504 60 167 8.0 16.0 0.00 0.00 0.00 1 1018.3
20260507123404 60 169 9.0 16.0 0.00 0.00 0.00 1 1018.3
20260507123304 60 171 8.0 16.0 0.00 0.00 0.00 1 1018.3
20260507123204 60 171 7.0 16.0 0.00 0.00 0.00 1 1018.3
20260507123125 60 171 7.0 16.0 0.00 0.00 0.00 1 1018.3
20260507123004 60 173 7.0 15.0 0.00 0.00 0.00 1 1018.3
20260507122904 60 174 6.0 15.0 0.00 0.00 0.00 1 1018.3
20260507122804 60 176 6.0 15.0 0.00 0.00 0.00 1 1018.3
20260507122705 60 175 6.0 15.0 0.00 0.00 0.00 1 1018.3
20260507122604 60 176 6.0 15.0 0.00 0.00 0.00 1 1018.3
20260507122504 60 178 6.0 15.0 0.00 0.00 0.00 1 1018.3
20260507122404 60 180 6.0 15.0 0.00 0.00 0.00 1 1018.2
20260507122325 60 178 6.0 15.0 0.00 0.00 0.00 1 1018.2
20260507122205 60 179 7.0 13.0 0.00 0.00 0.00 1 1018.1
20260507122104 60 178 7.0 16.0 0.00 0.00 0.00 1 1018.0
20260507122004 60 179 7.0 16.0 0.00 0.00 0.00 1 1018.0
20260507121904 60 180 6.0 16.0 0.00 0.00 0.00 1 1017.9
20260507121804 60 180 6.0 16.0 0.00 0.00 0.00 1 1017.9
20260507121704 60 182 6.0 16.0 0.00 0.00 0.00 1 1017.9
20260507121604 60 183 6.0 16.0 0.00 0.00 0.00 1 1017.8
20260507121504 60 183 6.0 16.0 0.00 0.00 0.00 1 1017.8
20260507121425 60 182 6.0 16.0 0.00 0.00 0.00 1 1017.7
20260507121304 60 181 5.0 16.0 0.00 0.00 0.00 1 1017.6
20260507121225 60 181 5.0 16.0 0.00 0.00 0.00 1 1017.5
20260507121104 60 181 4.0 13.0 0.00 0.00 0.00 1 1017.5
20260507121004 60 183 3.0 11.0 0.00 0.00 0.00 1 1017.5
20260507120904 60 181 3.0 11.0 0.00 0.00 0.00 1 1017.4
20260507120804 60 183 2.0 11.0 0.00 0.00 0.00 1 1017.5
20260507120704 60 178 2.0 11.0 0.00 0.00 0.00 1 1017.5
20260507120604 60 171 1.0 11.0 0.00 0.00 0.00 1 1017.5
20260507120525 60 163 1.0 11.0 0.00 0.00 0.00 1 1017.7
20260507120425 60 163 2.0 11.0 0.00 0.00 0.00 1 1017.8
20260507120304 60 168 3.0 16.0 0.00 0.00 0.00 1 1017.8
20260507120204 60 166 4.0 16.0 0.00 0.00 0.00 1 1017.9
20260507120104 60 171 5.0 16.0 0.00 0.00 0.00 1 1017.9
20260507120025 60 173 6.0 16.0 0.00 0.00 0.00 1 1017.9
20260507115904 60 173 7.0 16.0 0.00 0.00 0.00 1 1017.9
20260507115804 60 172 7.0 16.0 0.00 0.00 0.00 1 1017.9
20260507115704 60 171 8.0 16.0 0.00 0.00 0.00 1 1017.8
20260507115604 60 171 9.0 16.0 0.00 0.00 0.00 1 1017.7
20260507115504 60 172 9.0 16.0 0.00 0.00 0.00 1 1017.5
20260507115404 60 171 8.0 15.0 0.00 0.00 0.00 1 1017.5
20260507115307 60 171 8.0 15.0 0.00 0.00 0.00 1 1017.5
20260507115225 60 173 8.0 15.0 0.00 0.00 0.00 1 1017.5
20260507115104 60 171 8.0 15.0 0.00 0.00 0.00 1 1017.5
20260507115004 60 170 8.0 15.0 0.00 0.00 0.00 1 1017.6
20260507114904 60 171 8.0 17.0 0.00 0.00 0.00 1 1017.6
20260507114804 60 172 8.0 17.0 0.00 0.00 0.00 1 1017.6
20260507114704 60 174 8.0 17.0 0.00 0.00 0.00 1 1017.5
20260507114604 60 174 7.0 17.0 0.00 0.00 0.00 1 1017.5
20260507114504 60 174 7.0 17.0 0.00 0.00 0.00 1 1017.5
20260507114404 60 177 7.0 17.0 0.00 0.00 0.00 1 1017.4
20260507114304 60 177 7.0 17.0 0.00 0.00 0.00 1 1017.4
20260507114204 60 173 7.0 17.0 0.00 0.00 0.00 1 1017.3
20260507114125 60 174 7.0 17.0 0.00 0.00 0.00 1 1017.3
20260507114004 60 178 8.0 17.0 0.00 0.00 0.00 1 1017.3
20260507113904 60 176 8.0 15.0 0.00 0.00 0.00 1 1017.3
20260507113804 60 175 8.0 15.0 0.00 0.00 0.00 1 1017.3
20260507113704 60 174 8.0 15.0 0.00 0.00 0.00 1 1017.3
20260507113604 60 173 8.0 15.0 0.00 0.00 0.00 1 1017.4
20260507113504 60 172 8.0 15.0 0.00 0.00 0.00 1 1017.3
20260507113404 60 172 8.0 16.0 0.00 0.00 0.00 1 1017.3
20260507113325 60 172 8.0 16.0 0.00 0.00 0.00 1 1017.3
20260507113225 60 175 8.0 16.0 0.00 0.00 0.00 1 1017.4
20260507113104 60 175 7.0 17.0 0.00 0.00 0.00 1 1017.4
20260507113004 60 171 7.0 17.0 0.00 0.00 0.00 1 1017.4
20260507112904 60 171 7.0 17.0 0.00 0.00 0.00 1 1017.4
20260507112804 60 171 7.0 17.0 0.00 0.00 0.00 1 1017.3
20260507112725 60 173 7.0 17.0 0.00 0.00 0.00 1 1017.2
20260507112625 60 173 8.0 17.0 0.00 0.00 0.00 1 1017.2
20260507112525 60 176 8.0 17.0 0.00 0.00 0.00 1 1017.2
20260507112404 60 173 8.0 17.0 0.00 0.00 0.00 1 1017.3
20260507112307 60 172 8.0 17.0 0.00 0.00 0.00 1 1017.3
20260507112204 60 171 8.0 17.0 0.00 0.00 0.00 1 1017.4
20260507112125 60 171 9.0 16.0 0.00 0.00 0.00 1 1017.3
20260507112004 60 170 9.0 16.0 0.00 0.00 0.00 1 1017.3
20260507111905 60 171 9.0 16.0 0.00 0.00 0.00 1 1017.3
20260507111805 60 171 9.0 16.0 0.00 0.00 0.00 1 1017.2
20260507111704 60 171 9.0 16.0 0.00 0.00 0.00 1 1017.2
20260507111604 60 171 9.0 15.0 0.00 0.00 0.00 1 1017.2
20260507111506 60 171 9.0 15.0 0.00 0.00 0.00 1 1017.1
20260507111404 60 174 9.0 15.0 0.00 0.00 0.00 1 1017.1
20260507111304 60 174 9.0 15.0 0.00 0.00 0.00 1 1017.1
20260507111225 60 175 9.0 15.0 0.00 0.00 0.00 1 1017.1
20260507111104 60 176 9.0 15.0 0.00 0.00 0.00 1 1017.0
20260507111004 60 177 9.0 15.0 0.00 0.00 0.00 1 1017.1
20260507110904 60 177 9.0 15.0 0.00 0.00 0.00 1 1017.1
20260507110804 60 177 8.0 16.0 0.00 0.00 0.00 1 1017.2
20260507110704 60 176 8.0 16.0 0.00 0.00 0.00 1 1017.3
20260507110604 60 175 7.0 16.0 0.00 0.00 0.00 1 1017.3
20260507110504 60 175 7.0 16.0 0.00 0.00 0.00 1 1017.3
20260507110425 60 173 6.0 16.0 0.00 0.00 0.00 1 1017.3
20260507110325 60 169 6.0 16.0 0.00 0.00 0.00 1 1017.3
20260507110204 60 165 6.0 16.0 0.00 0.00 0.00 1 1017.4
20260507110104 60 163 7.0 16.0 0.00 0.00 0.00 1 1017.5
20260507110004 60 164 7.0 16.0 0.00 0.00 0.00 1 1017.6
20260507105904 60 163 6.0 16.0 0.00 0.00 0.00 1 1017.7
20260507105804 60 161 6.0 16.0 0.00 0.00 0.00 1 1017.7
20260507105704 60 161 7.0 16.0 0.00 0.00 0.00 1 1017.6
20260507105604 60 162 7.0 16.0 0.00 0.00 0.00 1 1017.7
20260507105504 60 161 7.0 16.0 0.00 0.00 0.00 1 1017.6
20260507105425 60 161 6.0 16.0 0.00 0.00 0.00 1 1017.5
20260507105306 60 163 6.0 16.0 0.00 0.00 0.00 1 1017.6
20260507105204 60 163 5.0 16.0 0.00 0.00 0.00 1 1017.5
20260507105104 60 164 5.0 13.0 0.00 0.00 0.00 1 1017.6
20260507105025 60 165 5.0 13.0 0.00 0.00 0.00 1 1017.5
20260507104904 60 165 5.0 13.0 0.00 0.00 0.00 1 1017.5
20260507104804 60 165 5.0 13.0 0.00 0.00 0.00 1 1017.6
20260507104704 60 167 6.0 15.0 0.00 0.00 0.00 1 1017.6
20260507104604 60 168 6.0 15.0 0.00 0.00 0.00 1 1017.5
20260507104504 60 169 5.0 15.0 0.00 0.00 0.00 1 1017.5
20260507104404 60 173 6.0 15.0 0.00 0.00 0.00 1 1017.4
20260507104304 60 176 7.0 15.0 0.00 0.00 0.00 1 1017.3
20260507104204 60 176 8.0 15.0 0.00 0.00 0.00 1 1017.3
20260507104104 60 176 8.0 15.0 0.00 0.00 0.00 1 1017.2
20260507104004 60 176 8.0 15.0 0.00 0.00 0.00 1 1017.1
20260507103904 60 179 7.0 15.0 0.00 0.00 0.00 1 1017.0
20260507103804 60 181 7.0 15.0 0.00 0.00 0.00 1 1016.9
20260507103704 60 181 7.0 13.0 0.00 0.00 0.00 1 1016.8
20260507103604 60 182 7.0 13.0 0.00 0.00 0.00 1 1016.7
20260507103504 60 182 7.0 13.0 0.00 0.00 0.00 1 1016.6
20260507103404 60 181 7.0 13.0 0.00 0.00 0.00 1 1016.6
20260507103325 60 180 6.0 12.0 0.00 0.00 0.00 1 1016.6
20260507103204 60 179 6.0 12.0 0.00 0.00 0.00 1 1016.7
20260507103104 60 178 6.0 12.0 0.00 0.00 0.00 1 1016.8
20260507103004 60 178 6.0 12.0 0.00 0.00 0.00 1 1016.9
20260507102904 60 177 6.0 10.0 0.00 0.00 0.00 1 1016.9
20260507102804 60 178 6.0 10.0 0.00 0.00 0.00 1 1017.0
20260507102704 60 180 6.0 10.0 0.00 0.00 0.00 1 1017.1
20260507102604 60 182 6.0 12.0 0.00 0.00 0.00 1 1017.1
20260507102526 60 182 6.0 12.0 0.00 0.00 0.00 1 1017.2
20260507102404 60 181 6.0 17.0 0.00 0.00 0.00 1 1017.2
20260507102306 60 179 7.0 17.0 0.00 0.00 0.00 1 1017.3
20260507102204 60 179 7.0 17.0 0.00 0.00 0.00 1 1017.2
20260507102125 60 181 7.0 17.0 0.00 0.00 0.00 1 1017.2
20260507102006 60 181 7.0 17.0 0.00 0.00 0.00 1 1017.1
20260507101904 60 181 7.0 17.0 0.00 0.00 0.00 1 1017.1
20260507101804 60 180 8.0 17.0 0.00 0.00 0.00 1 1017.0
20260507101725 60 178 8.0 17.0 0.00 0.00 0.00 1 1016.9
20260507101604 60 177 8.0 17.0 0.00 0.00 0.00 1 1016.9
20260507101504 60 179 8.0 17.0 0.00 0.00 0.00 1 1016.9
20260507101425 60 180 8.0 17.0 0.00 0.00 0.00 1 1016.9
20260507101304 60 183 8.0 15.0 0.00 0.00 0.00 1 1016.9
20260507101204 60 184 8.0 15.0 0.00 0.00 0.00 1 1016.9
20260507101125 60 181 8.0 15.0 0.00 0.00 0.00 1 1017.0
20260507101004 60 182 8.0 15.0 0.00 0.00 0.00 1 1016.9
20260507100904 60 183 8.0 15.0 0.00 0.00 0.00 1 1016.9
20260507100804 60 184 7.0 14.0 0.00 0.00 0.00 1 1016.8
20260507100704 60 183 7.0 13.0 0.00 0.00 0.00 1 1016.6
20260507100604 60 182 7.0 13.0 0.00 0.00 0.00 1 1016.6
20260507100525 60 182 7.0 13.0 0.00 0.00 0.00 1 1016.7
20260507100425 60 180 7.0 13.0 0.00 0.00 0.00 1 1016.7
20260507100304 60 180 7.0 14.0 0.00 0.00 0.00 1 1016.7
20260507100204 60 179 6.0 14.0 0.00 0.00 0.00 1 1016.7
20260507100104 60 180 6.0 14.0 0.00 0.00 0.00 1 1016.7
20260507100004 60 181 5.0 14.0 0.00 0.00 0.00 1 1016.8
20260507095904 60 180 4.0 14.0 0.00 0.00 0.00 1 1016.8
20260507095804 60 179 4.0 14.0 0.00 0.00 0.00 1 1016.8
20260507095725 60 181 3.0 14.0 0.00 0.00 0.00 1 1016.7
20260507095604 60 181 2.0 14.0 0.00 0.00 0.00 1 1016.7
20260507095504 60 184 2.0 14.0 0.00 0.00 0.00 1 1016.7
20260507095425 60 186 1.0 14.0 0.00 0.00 0.00 1 1016.6
20260507095325 60 178 1.0 6.0 0.00 0.00 0.00 1 1016.6
20260507095204 60 181 1.0 9.0 0.00 0.00 0.00 1 1016.7
20260507095104 60 174 1.0 9.0 0.00 0.00 0.00 1 1016.8
20260507095004 60 176 1.0 9.0 0.00 0.00 0.00 1 1016.8
20260507094904 60 176 1.0 9.0 0.00 0.00 0.00 1 1016.9
20260507094804 60 181 1.0 9.0 0.00 0.00 0.00 1 1016.8
20260507094704 60 183 1.0 9.0 0.00 0.00 0.00 1 1016.8
20260507094604 60 183 1.0 9.0 0.00 0.00 0.00 1 1016.8
20260507094504 60 183 1.0 9.0 0.00 0.00 0.00 1 1016.8
20260507094404 60 182 1.0 9.0 0.00 0.00 0.00 1 1016.8
20260507094304 60 181 1.0 9.0 0.00 0.00 0.00 1 1016.8
20260507094204 60 178 0.0 8.0 0.00 0.00 0.00 1 1016.8
20260507094125 60 190 0.0 7.0 0.00 0.00 0.00 1 1016.8
20260507094004 60 189 0.0 7.0 0.00 0.00 0.00 1 1016.8
20260507093904 60 188 0.0 7.0 0.00 0.00 0.00 1 1016.8
20260507093804 60 181 0.0 6.0 0.00 0.00 0.00 1 1016.7
20260507093704 60 180 0.0 6.0 0.00 0.00 0.00 1 1016.8
20260507093604 60 173 0.0 6.0 0.00 0.00 0.00 1 1016.7
20260507093504 60 176 1.0 6.0 0.00 0.00 0.00 1 1016.8
20260507093404 60 180 1.0 9.0 0.00 0.00 0.00 1 1016.8
20260507093304 60 180 1.0 9.0 0.00 0.00 0.00 1 1016.9
20260507093204 60 180 1.0 9.0 0.00 0.00 0.00 1 1017.0
20260507093104 60 178 1.0 9.0 0.00 0.00 0.00 1 1017.0
20260507093004 60 178 1.0 9.0 0.00 0.00 0.00 1 1016.9
20260507092904 60 178 1.0 9.0 0.00 0.00 0.00 1 1016.9
20260507092804 60 178 1.0 9.0 0.00 0.00 0.00 1 1016.9
20260507092704 60 178 0.0 9.0 0.00 0.00 0.00 1 1016.9
20260507092604 60 183 0.0 9.0 0.00 0.00 0.00 1 1016.9
20260507092504 60 182 0.0 9.0 0.00 0.00 0.00 1 1017.0
20260507092404 60 178 0.0 4.0 0.00 0.00 0.00 1 1017.0
20260507092307 60 177 0.0 4.0 0.00 0.00 0.00 1 1017.1
20260507092204 60 178 0.0 4.0 0.00 0.00 0.00 1 1017.1
20260507092104 60 178 0.0 4.0 0.00 0.00 0.00 1 1017.1
20260507092004 60 174 0.0 4.0 0.00 0.00 0.00 1 1017.1
20260507091904 60 174 0.0 4.0 0.00 0.00 0.00 1 1017.0
20260507091825 60 176 0.0 3.0 0.00 0.00 0.00 1 1017.0
20260507091704 60 175 0.0 3.0 0.00 0.00 0.00 1 1016.9
20260507091604 60 182 0.0 2.0 0.00 0.00 0.00 1 1016.9
20260507091504 60 174 0.0 2.0 0.00 0.00 0.00 1 1016.9
20260507091404 60 168 0.0 1.0 0.00 0.00 0.00 1 1016.8
20260507091304 60 168 0.0 1.0 0.00 0.00 0.00 1 1016.7
20260507091204 60 173 0.0 1.0 0.00 0.00 0.00 1 1016.7
20260507091104 60 173 0.0 1.0 0.00 0.00 0.00 1 1016.5
20260507091004 60 173 0.0 1.0 0.00 0.00 0.00 1 1016.5
20260507090925 60 173 0.0 1.0 0.00 0.00 0.00 1 1016.5
20260507090804 60 173 0.0 2.0 0.00 0.00 0.00 1 1016.5
20260507090704 60 173 0.0 2.0 0.00 0.00 0.00 1 1016.4
20260507090604 60 162 0.0 2.0 0.00 0.00 0.00 1 1016.4
20260507090525 60 183 0.0 2.0 0.00 0.00 0.00 1 1016.4
20260507090404 60 183 0.0 2.0 0.00 0.00 0.00 1 1016.4
20260507090304 60 183 0.0 2.0 0.00 0.00 0.00 1 1016.3
20260507090225 60 0 0.0 2.0 0.00 0.00 0.00 1 1016.3
20260507090104 60 226 0.0 2.0 0.00 0.00 0.00 1 1016.3
20260507090005 60 226 0.0 2.0 0.00 0.00 0.00 1 1016.4
20260507085904 60 226 0.0 2.0 0.00 0.00 0.00 1 1016.5
20260507085805 60 226 0.0 1.0 0.00 0.00 0.00 1 1016.5
20260507085704 60 226 0.0 1.0 0.00 0.00 0.00 1 1016.5
20260507085604 60 184 0.0 1.0 0.00 0.00 0.00 1 1016.5
20260507085504 60 190 1.0 8.0 0.00 0.00 0.00 1 1016.3
20260507085404 60 193 1.0 8.0 0.00 0.00 0.00 1 1016.2
20260507085325 60 184 1.0 8.0 0.00 0.00 0.00 1 1016.0
20260507085204 60 181 2.0 8.0 0.00 0.00 0.00 1 1016.0
20260507085104 60 179 2.0 10.0 0.00 0.00 0.00 1 1016.0
20260507085004 60 179 3.0 10.0 0.00 0.00 0.00 1 1016.1
20260507084925 60 178 3.0 10.0 0.00 0.00 0.00 1 1016.2
20260507084805 60 179 3.0 10.0 0.00 0.00 0.00 1 1016.2
20260507084704 60 179 3.0 10.0 0.00 0.00 0.00 1 1016.1
20260507084604 60 179 3.0 10.0 0.00 0.00 0.00 1 1016.2
20260507084504 60 178 3.0 10.0 0.00 0.00 0.00 1 1016.1
20260507084404 60 175 2.0 10.0 0.00 0.00 0.00 1 1016.1
20260507084304 60 178 2.0 10.0 0.00 0.00 0.00 1 1016.2
20260507084204 60 178 2.0 10.0 0.00 0.00 0.00 1 1016.2
20260507084104 60 179 1.0 9.0 0.00 0.00 0.00 1 1016.2
20260507084004 60 180 1.0 6.0 0.00 0.00 0.00 1 1016.3
20260507083904 60 187 0.0 6.0 0.00 0.00 0.00 1 1016.4
20260507083825 60 178 0.0 6.0 0.00 0.00 0.00 1 1016.3
20260507083704 60 225 0.0 1.0 0.00 0.00 0.00 1 1016.3
20260507083604 60 172 0.0 7.0 0.00 0.00 0.00 1 1016.2
20260507083504 60 189 1.0 11.0 0.00 0.00 0.00 1 1016.2
20260507083404 60 197 1.0 11.0 0.00 0.00 0.00 1 1016.2
20260507083304 60 197 1.0 11.0 0.00 0.00 0.00 1 1016.2
20260507083204 60 197 2.0 11.0 0.00 0.00 0.00 1 1016.2
20260507083104 60 197 2.0 11.0 0.00 0.00 0.00 1 1016.2
20260507083004 60 197 2.0 11.0 0.00 0.00 0.00 1 1016.2
20260507082904 60 197 2.0 11.0 0.00 0.00 0.00 1 1016.1
20260507082804 60 197 2.0 11.0 0.00 0.00 0.00 1 1016.0
20260507082704 60 196 2.0 11.0 0.00 0.00 0.00 1 1015.9
20260507082625 60 196 1.0 11.0 0.00 0.00 0.00 1 1015.8
20260507082504 60 207 1.0 11.0 0.00 0.00 0.00 1 1015.7
20260507082404 60 194 0.0 6.0 0.00 0.00 0.00 1 1015.7
20260507082306 60 197 0.0 6.0 0.00 0.00 0.00 1 1015.6
20260507082204 60 194 0.0 6.0 0.00 0.00 0.00 1 1015.7
20260507082104 60 194 0.0 4.0 0.00 0.00 0.00 1 1015.8
20260507082004 60 186 0.0 4.0 0.00 0.00 0.00 1 1015.8
20260507081904 60 195 0.0 4.0 0.00 0.00 0.00 1 1015.9
20260507081804 60 190 0.0 4.0 0.00 0.00 0.00 1 1015.9
20260507081705 60 191 0.0 4.0 0.00 0.00 0.00 1 1015.9
20260507081625 60 191 0.0 4.0 0.00 0.00 0.00 1 1015.7
20260507081504 60 191 0.0 4.0 0.00 0.00 0.00 1 1015.7
20260507081404 60 191 0.0 4.0 0.00 0.00 0.00 1 1015.7
20260507081304 60 189 0.0 4.0 0.00 0.00 0.00 1 1015.7
20260507081225 60 190 0.0 4.0 0.00 0.00 0.00 1 1015.6
20260507081104 60 188 0.0 4.0 0.00 0.00 0.00 1 1015.6
20260507081004 60 191 0.0 4.0 0.00 0.00 0.00 1 1015.6
20260507080904 60 175 0.0 3.0 0.00 0.00 0.00 1 1015.7
20260507080804 60 185 0.0 3.0 0.00 0.00 0.00 1 1015.7
20260507080704 60 193 0.0 3.0 0.00 0.00 0.00 1 1015.7
20260507080625 61 193 0.0 3.0 0.00 0.00 0.00 1 1015.9
20260507080504 61 193 0.0 3.0 0.00 0.00 0.00 1 1016.0
20260507080404 61 202 0.0 3.0 0.00 0.00 0.00 1 1016.1
20260507080304 61 202 0.0 3.0 0.00 0.00 0.00 1 1016.2
20260507080204 61 197 0.0 3.0 0.00 0.00 0.00 1 1016.1
20260507080125 61 197 0.0 3.0 0.00 0.00 0.00 1 1016.0
20260507080004 61 200 0.0 3.0 0.00 0.00 0.00 1 1015.8
20260507075904 61 200 0.0 3.0 0.00 0.00 0.00 1 1015.7
20260507075804 61 204 0.0 3.0 0.00 0.00 0.00 1 1015.5
20260507075704 61 202 0.0 3.0 0.00 0.00 0.00 1 1015.4
20260507075604 61 198 0.0 3.0 0.00 0.00 0.00 1 1015.3
20260507075504 61 198 0.0 3.0 0.00 0.00 0.00 1 1015.3
20260507075404 61 195 0.0 3.0 0.00 0.00 0.00 1 1015.4
20260507075306 61 198 0.0 3.0 0.00 0.00 0.00 1 1015.4
20260507075204 61 200 0.0 3.0 0.00 0.00 0.00 1 1015.4
20260507075125 61 210 0.0 6.0 0.00 0.00 0.00 1 1015.4
20260507075025 61 210 0.0 6.0 0.00 0.00 0.00 1 1015.4
20260507074925 61 210 0.0 6.0 0.00 0.00 0.00 1 1015.4
20260507074804 61 208 0.0 6.0 0.00 0.00 0.00 1 1015.4
20260507074704 61 210 0.0 6.0 0.00 0.00 0.00 1 1015.4
20260507074604 61 218 0.0 6.0 0.00 0.00 0.00 1 1015.4
20260507074504 61 218 0.0 6.0 0.00 0.00 0.00 1 1015.4
20260507074404 61 218 0.0 6.0 0.00 0.00 0.00 1 1015.4
20260507074325 61 218 0.0 6.0 0.00 0.00 0.00 1 1015.4
20260507074225 61 223 0.0 6.0 0.00 0.00 0.00 1 1015.5
20260507074104 61 218 0.0 5.0 0.00 0.00 0.00 1 1015.5
20260507074004 61 220 0.0 5.0 0.00 0.00 0.00 1 1015.5
20260507073904 61 217 0.0 5.0 0.00 0.00 0.00 1 1015.7
20260507073804 61 216 0.0 5.0 0.00 0.00 0.00 1 1015.8
20260507073726 61 213 0.0 5.0 0.00 0.00 0.00 1 1015.9
20260507073604 61 214 0.0 5.0 0.00 0.00 0.00 1 1015.9
20260507073525 61 214 0.0 5.0 0.00 0.00 0.00 1 1015.8
20260507073404 61 205 0.0 6.0 0.00 0.00 0.00 1 1015.7
20260507073304 61 205 0.0 6.0 0.00 0.00 0.00 1 1015.5
20260507073225 61 205 0.0 6.0 0.00 0.00 0.00 1 1015.5
20260507073104 61 204 0.0 6.0 0.00 0.00 0.00 1 1015.5
20260507073004 61 202 0.0 6.0 0.00 0.00 0.00 1 1015.5
20260507072904 61 201 0.0 6.0 0.00 0.00 0.00 1 1015.5
20260507072825 61 201 0.0 6.0 0.00 0.00 0.00 1 1015.5
20260507072704 61 200 0.0 6.0 0.00 0.00 0.00 1 1015.6
20260507072604 61 192 0.0 6.0 0.00 0.00 0.00 1 1015.7
20260507072504 61 231 0.0 4.0 0.00 0.00 0.00 1 1015.7
20260507072404 61 229 0.0 4.0 0.00 0.00 0.00 1 1015.8
20260507072325 61 229 0.0 4.0 0.00 0.00 0.00 1 1015.8
20260507072204 61 229 0.0 4.0 0.00 0.00 0.00 1 1015.8
20260507072125 61 229 0.0 4.0 0.00 0.00 0.00 1 1015.7
20260507072004 61 229 0.0 4.0 0.00 0.00 0.00 1 1015.7
20260507071904 61 230 0.0 4.0 0.00 0.00 0.00 1 1015.7
20260507071804 61 227 0.0 4.0 0.00 0.00 0.00 1 1015.7
20260507071704 61 224 0.0 4.0 0.00 0.00 0.00 1 1015.6
20260507071604 61 224 0.0 4.0 0.00 0.00 0.00 1 1015.7
20260507071504 61 208 0.0 1.0 0.00 0.00 0.00 1 1015.7
20260507071404 61 207 0.0 1.0 0.00 0.00 0.00 1 1015.9
20260507071304 61 208 0.0 1.0 0.00 0.00 0.00 1 1016.0
20260507071225 61 208 0.0 1.0 0.00 0.00 0.00 1 1016.1
20260507071104 61 208 0.0 1.0 0.00 0.00 0.00 1 1016.1
20260507071004 61 209 0.0 2.0 0.00 0.00 0.00 1 1016.2
20260507070904 61 209 0.0 2.0 0.00 0.00 0.00 1 1016.1
20260507070825 61 209 0.0 2.0 0.00 0.00 0.00 1 1016.1
20260507070725 61 208 0.0 2.0 0.00 0.00 0.00 1 1016.0
20260507070604 61 205 0.0 2.0 0.00 0.00 0.00 1 1016.0
20260507070504 61 205 0.0 2.0 0.00 0.00 0.00 1 1015.9
20260507070404 61 211 0.0 2.0 0.00 0.00 0.00 1 1015.8
20260507070325 61 213 0.0 2.0 0.00 0.00 0.00 1 1015.8
20260507070225 61 213 0.0 2.0 0.00 0.00 0.00 1 1015.8
20260507070125 61 223 0.0 2.0 0.00 0.00 0.00 1 1015.8
20260507070008 62 216 0.0 4.0 0.00 0.00 0.00 1 1015.8
20260507065904 62 216 0.0 4.0 0.00 0.00 0.00 1 1015.8
20260507065804 62 216 0.0 4.0 0.00 0.00 0.00 1 1015.8
20260507065704 62 216 0.0 4.0 0.00 0.00 0.00 1 1015.8
20260507065604 62 212 0.0 4.0 0.00 0.00 0.00 1 1015.7
20260507065525 62 209 0.0 4.0 0.00 0.00 0.00 1 1015.6
20260507065425 62 209 0.0 4.0 0.00 0.00 0.00 1 1015.6
20260507065306 62 209 0.0 4.0 0.00 0.00 0.00 1 1015.4
20260507065204 62 212 0.0 4.0 0.00 0.00 0.00 1 1015.4
20260507065104 62 207 0.0 7.0 0.00 0.00 0.00 1 1015.3
20260507065004 62 206 0.0 7.0 0.00 0.00 0.00 1 1015.3
20260507064904 62 206 0.0 7.0 0.00 0.00 0.00 1 1015.3
20260507064804 62 207 0.0 7.0 0.00 0.00 0.00 1 1015.3
20260507064704 62 210 0.0 7.0 0.00 0.00 0.00 1 1015.3
20260507064604 62 210 0.0 7.0 0.00 0.00 0.00 1 1015.3
20260507064525 62 211 0.0 7.0 0.00 0.00 0.00 1 1015.3
20260507064425 62 211 0.0 7.0 0.00 0.00 0.00 1 1015.2
20260507064304 62 211 0.0 7.0 0.00 0.00 0.00 1 1015.0
20260507064204 62 211 0.0 7.0 0.00 0.00 0.00 1 1014.9
20260507064104 62 213 0.0 6.0 0.00 0.00 0.00 1 1014.8
20260507064004 62 215 0.0 6.0 0.00 0.00 0.00 1 1014.8
20260507063904 62 214 0.0 6.0 0.00 0.00 0.00 1 1014.8
20260507063804 62 215 0.0 6.0 0.00 0.00 0.00 1 1014.9
20260507063725 62 210 0.0 3.0 0.00 0.00 0.00 1 1015.0
20260507063625 62 209 0.0 3.0 0.00 0.00 0.00 1 1015.1
20260507063525 62 209 0.0 3.0 0.00 0.00 0.00 1 1015.2
20260507063404 62 209 0.0 3.0 0.00 0.00 0.00 1 1015.2
20260507063304 62 209 0.0 3.0 0.00 0.00 0.00 1 1015.3
20260507063204 62 205 0.0 3.0 0.00 0.00 0.00 1 1015.3
20260507063104 62 199 0.0 3.0 0.00 0.00 0.00 1 1015.3
20260507063004 62 209 0.0 6.0 0.00 0.00 0.00 1 1015.4
20260507062925 62 213 0.0 6.0 0.00 0.00 0.00 1 1015.4
20260507062804 62 213 0.0 6.0 0.00 0.00 0.00 1 1015.5
20260507062704 62 213 0.0 6.0 0.00 0.00 0.00 1 1015.5
20260507062604 62 213 0.0 6.0 0.00 0.00 0.00 1 1015.6
20260507062504 62 213 0.0 6.0 0.00 0.00 0.00 1 1015.7
20260507062425 62 212 0.0 6.0 0.00 0.00 0.00 1 1015.7
20260507062306 62 212 0.0 6.0 0.00 0.00 0.00 1 1015.7
20260507062225 62 211 0.0 6.0 0.00 0.00 0.00 1 1015.7
20260507062104 62 212 0.0 6.0 0.00 0.00 0.00 1 1015.7
20260507062004 62 209 0.0 5.0 0.00 0.00 0.00 1 1015.5
20260507061904 62 208 0.0 5.0 0.00 0.00 0.00 1 1015.5
20260507061804 62 207 0.0 5.0 0.00 0.00 0.00 1 1015.4
20260507061704 62 205 0.0 5.0 0.00 0.00 0.00 1 1015.3
20260507061604 62 204 0.0 5.0 0.00 0.00 0.00 1 1015.3
20260507061525 62 203 0.0 5.0 0.00 0.00 0.00 1 1015.3
20260507061404 62 200 0.0 3.0 0.00 0.00 0.00 1 1015.3
20260507061304 62 200 0.0 3.0 0.00 0.00 0.00 1 1015.4
20260507061204 62 202 0.0 3.0 0.00 0.00 0.00 1 1015.4
20260507061104 62 202 0.0 3.0 0.00 0.00 0.00 1 1015.4
20260507061004 62 202 0.0 3.0 0.00 0.00 0.00 1 1015.3
20260507060904 62 200 0.0 3.0 0.00 0.00 0.00 1 1015.3
20260507060804 62 201 0.0 3.0 0.00 0.00 0.00 1 1015.3
20260507060704 62 201 0.0 3.0 0.00 0.00 0.00 1 1015.3
20260507060604 62 201 0.0 3.0 0.00 0.00 0.00 1 1015.3
20260507060504 62 202 0.0 3.0 0.00 0.00 0.00 1 1015.3
20260507060404 62 200 0.0 3.0 0.00 0.00 0.00 1 1015.3
20260507060304 62 200 0.0 3.0 0.00 0.00 0.00 1 1015.4
20260507060225 62 201 0.0 3.0 0.00 0.00 0.00 1 1015.5
20260507060104 62 185 0.0 3.0 0.00 0.00 0.00 1 1015.5
20260507060004 62 185 0.0 2.0 0.00 0.00 0.00 1 1015.5
20260507055904 62 211 0.0 3.0 0.00 0.00 0.00 1 1015.5
20260507055804 62 212 0.0 3.0 0.00 0.00 0.00 1 1015.5
20260507055704 62 209 0.0 3.0 0.00 0.00 0.00 1 1015.6
20260507055604 62 204 0.0 3.0 0.00 0.00 0.00 1 1015.6
20260507055504 62 202 0.0 3.0 0.00 0.00 0.00 1 1015.6
20260507055404 62 203 0.0 4.0 0.00 0.00 0.00 1 1015.4
20260507055306 62 207 0.0 5.0 0.00 0.00 0.00 1 1015.4
20260507055225 62 207 0.0 5.0 0.00 0.00 0.00 1 1015.3
20260507055125 62 207 0.0 5.0 0.00 0.00 0.00 1 1015.3
20260507055004 62 207 0.0 5.0 0.00 0.00 0.00 1 1015.2
20260507054904 62 206 0.0 5.0 0.00 0.00 0.00 1 1015.2
20260507054804 62 205 0.0 5.0 0.00 0.00 0.00 1 1015.3
20260507054704 62 205 0.0 5.0 0.00 0.00 0.00 1 1015.3
20260507054604 62 211 0.0 5.0 0.00 0.00 0.00 1 1015.3
20260507054504 62 212 0.0 5.0 0.00 0.00 0.00 1 1015.2
20260507054425 62 211 0.0 5.0 0.00 0.00 0.00 1 1015.2
20260507054304 62 205 0.0 8.0 0.00 0.00 0.00 1 1015.2
20260507054204 62 205 0.0 8.0 0.00 0.00 0.00 2 1015.3
20260507054104 62 205 0.0 8.0 0.00 0.00 0.00 2 1015.4
20260507054004 62 205 0.0 8.0 0.00 0.00 0.00 3 1015.4
20260507053904 62 204 0.0 8.0 0.00 0.00 0.00 3 1015.4
20260507053825 62 204 0.0 8.0 0.00 0.00 0.00 3 1015.4
20260507053704 62 206 0.0 8.0 0.00 0.00 0.00 3 1015.3
20260507053605 62 204 0.0 8.0 0.00 0.00 0.00 3 1015.3
20260507053504 62 204 0.0 8.0 0.00 0.00 0.00 4 1015.2
20260507053404 62 202 0.0 8.0 0.00 0.00 0.00 4 1015.3
20260507053325 62 205 0.0 5.0 0.00 0.00 0.00 4 1015.2
20260507053204 62 205 0.0 5.0 0.00 0.00 0.00 4 1015.2
20260507053104 62 210 1.0 9.0 0.00 0.00 0.00 4 1015.2
20260507053004 62 206 1.0 9.0 0.00 0.00 0.00 5 1015.1
20260507052904 62 202 1.0 9.0 0.00 0.00 0.00 5 1015.1
20260507052804 62 203 1.0 9.0 0.00 0.00 0.00 5 1015.1
20260507052704 62 202 1.0 9.0 0.00 0.00 0.00 6 1015.1
20260507052604 62 201 1.0 9.0 0.00 0.00 0.00 6 1015.2
20260507052504 62 201 1.0 9.0 0.00 0.00 0.00 7 1015.2
20260507052404 62 197 1.0 9.0 0.00 0.00 0.00 7 1015.3
20260507052306 62 201 1.0 9.0 0.00 0.00 0.00 7 1015.3
20260507052204 62 200 1.0 9.0 0.00 0.00 0.00 8 1015.3
20260507052104 62 196 1.0 8.0 0.00 0.00 0.00 8 1015.3
20260507052004 62 197 1.0 8.0 0.00 0.00 0.00 8 1015.3
20260507051925 62 198 1.0 8.0 0.00 0.00 0.00 8 1015.2
20260507051825 62 198 1.0 8.0 0.00 0.00 0.00 8 1015.2
20260507051704 62 201 1.0 11.0 0.00 0.00 0.00 9 1015.2
20260507051625 62 197 1.0 11.0 0.00 0.00 0.00 9 1015.2
20260507051504 62 196 1.0 11.0 0.00 0.00 0.00 9 1015.1
20260507051404 62 199 1.0 11.0 0.00 0.00 0.00 9 1015.1
20260507051325 62 198 1.0 11.0 0.00 0.00 0.00 9 1015.1
20260507051204 62 194 1.0 11.0 0.00 0.00 0.00 9 1015.1
20260507051104 62 193 1.0 11.0 0.00 0.00 0.00 10 1015.1
20260507051025 62 194 1.0 11.0 0.00 0.00 0.00 10 1015.2
20260507050904 62 195 1.0 11.0 0.00 0.00 0.00 10 1015.2
20260507050804 62 195 1.0 11.0 0.00 0.00 0.00 10 1015.2
20260507050725 62 189 2.0 11.0 0.00 0.00 0.00 10 1015.2
20260507050604 62 189 2.0 13.0 0.00 0.00 0.00 10 1015.1
20260507050504 62 190 2.0 13.0 0.00 0.00 0.00 10 1015.2
20260507050404 63 190 2.0 13.0 0.00 0.00 0.00 10 1015.1
20260507050304 63 192 2.0 13.0 0.00 0.00 0.00 10 1015.2
20260507050204 63 192 2.0 13.0 0.00 0.00 0.00 10 1015.2
20260507050104 63 193 2.0 13.0 0.00 0.00 0.00 10 1015.2
20260507050004 63 193 1.0 13.0 0.00 0.00 0.00 10 1015.3
20260507045904 63 192 1.0 13.0 0.00 0.00 0.00 10 1015.2
20260507045804 63 190 1.0 13.0 0.00 0.00 0.00 10 1015.2
20260507045725 63 191 1.0 13.0 0.00 0.00 0.00 10 1015.2
20260507045604 63 193 1.0 8.0 0.00 0.00 0.00 9 1015.2
20260507045504 63 192 1.0 8.0 0.00 0.00 0.00 9 1015.3
20260507045404 63 189 1.0 8.0 0.00 0.00 0.00 9 1015.3
20260507045306 63 188 2.0 11.0 0.00 0.00 0.00 7 1015.4
20260507045204 63 190 3.0 11.0 0.00 0.00 0.00 7 1015.5
20260507045104 63 190 3.0 13.0 0.00 0.00 0.00 6 1015.5
20260507045004 63 188 4.0 13.0 0.00 0.00 0.00 6 1015.5
20260507044904 63 187 4.0 13.0 0.00 0.00 0.00 5 1015.4
20260507044804 63 187 4.0 13.0 0.00 0.00 0.00 5 1015.5
20260507044704 63 188 4.0 13.0 0.00 0.00 0.00 4 1015.5
20260507044604 63 188 4.0 13.0 0.00 0.00 0.00 4 1015.5
20260507044504 63 188 5.0 13.0 0.00 0.00 0.00 4 1015.5
20260507044404 63 186 5.0 13.0 0.00 0.00 0.00 4 1015.5
20260507044304 63 184 5.0 13.0 0.00 0.00 0.00 4 1015.6
20260507044204 63 180 4.0 13.0 0.00 0.00 0.00 4 1015.7
20260507044104 63 177 4.0 12.0 0.00 0.00 0.00 3 1015.7
20260507044004 63 176 4.0 12.0 0.00 0.00 0.00 2 1015.7
20260507043904 63 178 4.0 12.0 0.00 0.00 0.00 1 1015.7
20260507043825 63 180 5.0 12.0 0.00 0.00 0.00 1 1015.6
20260507043704 63 180 5.0 12.0 0.00 0.00 0.00 1 1015.5
20260507043604 63 181 6.0 12.0 0.00 0.00 0.00 1 1015.5
20260507043504 63 181 6.0 12.0 0.00 0.00 0.00 1 1015.5
20260507043404 63 182 6.0 12.0 0.00 0.00 0.00 1 1015.5
20260507043304 63 182 5.0 12.0 0.00 0.00 0.00 1 1015.4
20260507043204 63 185 5.0 12.0 0.00 0.00 0.00 1 1015.4
20260507043125 63 186 4.0 12.0 0.00 0.00 0.00 1 1015.3
20260507043004 63 189 5.0 12.0 0.00 0.00 0.00 1 1015.3
20260507042925 63 191 4.0 12.0 0.00 0.00 0.00 1 1015.2
20260507042804 63 192 4.0 12.0 0.00 0.00 0.00 1 1015.2
20260507042704 63 192 5.0 13.0 0.00 0.00 0.00 1 1015.2
20260507042604 63 190 4.0 13.0 0.00 0.00 0.00 1 1015.1
20260507042504 63 191 3.0 13.0 0.00 0.00 0.00 1 1015.2
20260507042404 63 192 3.0 13.0 0.00 0.00 0.00 1 1015.1
20260507042306 63 188 4.0 13.0 0.00 0.00 0.00 1 1015.0
20260507042225 63 188 5.0 13.0 0.00 0.00 0.00 1 1015.0
20260507042104 63 187 5.0 13.0 0.00 0.00 0.00 1 1015.0
20260507042025 63 185 5.0 13.0 0.00 0.00 0.00 1 1015.0
20260507041904 63 182 5.0 13.0 0.00 0.00 0.00 1 1015.1
20260507041804 63 181 4.0 13.0 0.00 0.00 0.00 1 1015.2
20260507041725 63 180 3.0 12.0 0.00 0.00 0.00 1 1015.2
20260507041604 63 179 3.0 12.0 0.00 0.00 0.00 1 1015.3
20260507041504 63 179 3.0 12.0 0.00 0.00 0.00 1 1015.3
20260507041404 63 179 3.0 12.0 0.00 0.00 0.00 1 1015.2
20260507041304 63 182 2.0 12.0 0.00 0.00 0.00 1 1015.3
20260507041204 63 181 2.0 12.0 0.00 0.00 0.00 1 1015.2
20260507041104 63 182 1.0 12.0 0.00 0.00 0.00 1 1015.2
20260507041004 63 182 1.0 7.0 0.00 0.00 0.00 1 1015.1
20260507040904 63 186 0.0 7.0 0.00 0.00 0.00 1 1015.1
20260507040825 63 185 0.0 7.0 0.00 0.00 0.00 1 1015.2
20260507040705 63 180 0.0 6.0 0.00 0.00 0.00 1 1015.3
20260507040604 63 183 0.0 6.0 0.00 0.00 0.00 1 1015.3
20260507040504 63 180 0.0 4.0 0.00 0.00 0.00 1 1015.4
20260507040425 63 180 0.0 4.0 0.00 0.00 0.00 1 1015.5
20260507040304 63 178 0.0 4.0 0.00 0.00 0.00 1 1015.4
20260507040204 63 178 0.0 4.0 0.00 0.00 0.00 1 1015.4
20260507040125 63 179 0.0 4.0 0.00 0.00 0.00 1 1015.4
20260507040025 63 179 0.0 4.0 0.00 0.00 0.00 1 1015.4
20260507035904 63 179 0.0 3.0 0.00 0.00 0.00 1 1015.4
20260507035804 63 175 0.0 3.0 0.00 0.00 0.00 1 1015.3
20260507035704 63 175 0.0 3.0 0.00 0.00 0.00 1 1015.4
20260507035625 63 175 0.0 3.0 0.00 0.00 0.00 1 1015.5
20260507035504 63 184 0.0 1.0 0.00 0.00 0.00 1 1015.5
20260507035404 63 195 0.0 2.0 0.00 0.00 0.00 1 1015.5
20260507035306 63 195 0.0 2.0 0.00 0.00 0.00 1 1015.5
20260507035225 63 195 0.0 2.0 0.00 0.00 0.00 1 1015.4
20260507035104 63 200 0.0 2.0 0.00 0.00 0.00 1 1015.4
20260507035004 63 193 0.0 3.0 0.00 0.00 0.00 1 1015.4
20260507034904 63 184 0.0 3.0 0.00 0.00 0.00 1 1015.4
20260507034825 63 187 1.0 10.0 0.00 0.00 0.00 1 1015.3
20260507034725 63 180 1.0 12.0 0.00 0.00 0.00 1 1015.3
20260507034604 63 182 2.0 12.0 0.00 0.00 0.00 1 1015.2
20260507034504 63 178 2.0 12.0 0.00 0.00 0.00 1 1015.2
20260507034404 63 179 3.0 12.0 0.00 0.00 0.00 1 1015.3
20260507034304 63 176 3.0 12.0 0.00 0.00 0.00 1 1015.3
20260507034204 63 173 3.0 12.0 0.00 0.00 0.00 1 1015.3
20260507034125 63 173 4.0 12.0 0.00 0.00 0.00 1 1015.2
20260507034004 63 174 5.0 12.0 0.00 0.00 0.00 1 1015.1
20260507033904 63 175 5.0 12.0 0.00 0.00 0.00 1 1015.0
20260507033804 63 176 5.0 12.0 0.00 0.00 0.00 1 1014.9
20260507033704 63 175 6.0 13.0 0.00 0.00 0.00 1 1015.0
20260507033604 63 176 6.0 13.0 0.00 0.00 0.00 1 1015.1
20260507033504 63 177 6.0 13.0 0.00 0.00 0.00 1 1015.1
20260507033404 63 177 7.0 13.0 0.00 0.00 0.00 2 1015.2
20260507033304 63 178 7.0 13.0 0.00 0.00 0.00 2 1015.1
20260507033204 63 179 7.0 13.0 0.00 0.00 0.00 2 1015.1
20260507033104 63 179 7.0 13.0 0.00 0.00 0.00 3 1015.0
20260507033004 63 180 7.0 13.0 0.00 0.00 0.00 3 1015.0
20260507032904 63 181 7.0 13.0 0.00 0.00 0.00 3 1015.1
20260507032804 63 182 7.0 13.0 0.00 0.00 0.00 4 1015.1
20260507032704 63 180 6.0 12.0 0.00 0.00 0.00 3 1015.1
20260507032604 63 179 6.0 12.0 0.00 0.00 0.00 4 1015.2
20260507032525 63 178 6.0 13.0 0.00 0.00 0.00 3 1015.2
20260507032404 63 178 6.0 13.0 0.00 0.00 0.00 4 1015.3
20260507032306 63 177 6.0 13.0 0.00 0.00 0.00 4 1015.3
20260507032204 63 177 5.0 13.0 0.00 0.00 0.00 4 1015.3
20260507032104 63 177 5.0 13.0 0.00 0.00 0.00 4 1015.2
20260507032025 63 176 5.0 13.0 0.00 0.00 0.00 4 1015.3
20260507031904 63 170 4.0 13.0 0.00 0.00 0.00 4 1015.3
20260507031804 63 168 3.0 13.0 0.00 0.00 0.00 4 1015.4
20260507031704 63 170 3.0 13.0 0.00 0.00 0.00 5 1015.4
20260507031604 63 169 3.0 13.0 0.00 0.00 0.00 5 1015.3
20260507031525 63 169 3.0 12.0 0.00 0.00 0.00 4 1015.2
20260507031404 63 169 3.0 11.0 0.00 0.00 0.00 4 1015.1
20260507031304 63 171 3.0 11.0 0.00 0.00 0.00 4 1015.1
20260507031204 63 172 3.0 11.0 0.00 0.00 0.00 5 1015.0
20260507031104 63 174 4.0 11.0 0.00 0.00 0.00 4 1014.9
20260507031004 63 176 4.0 11.0 0.00 0.00 0.00 4 1014.8
20260507030904 63 177 4.0 10.0 0.00 0.00 0.00 4 1014.9
20260507030804 63 177 4.0 10.0 0.00 0.00 0.00 4 1014.9
20260507030704 63 176 4.0 10.0 0.00 0.00 0.00 4 1014.9
20260507030604 63 179 4.0 10.0 0.00 0.00 0.00 3 1015.0
20260507030504 63 179 4.0 10.0 0.00 0.00 0.00 3 1015.0
20260507030404 63 180 4.0 11.0 0.00 0.00 0.00 4 1015.0
20260507030304 63 179 4.0 11.0 0.00 0.00 0.00 3 1015.0
20260507030204 63 179 4.0 11.0 0.00 0.00 0.00 4 1015.0
20260507030125 63 178 3.0 11.0 0.00 0.00 0.00 4 1015.0
20260507030004 63 178 3.0 11.0 0.00 0.00 0.00 3 1015.0
20260507025904 63 179 3.0 11.0 0.00 0.00 0.00 3 1015.0
20260507025804 63 179 3.0 11.0 0.00 0.00 0.00 2 1014.8
20260507025704 63 181 2.0 11.0 0.00 0.00 0.00 3 1014.7
20260507025604 63 177 2.0 11.0 0.00 0.00 0.00 2 1014.6
20260507025504 63 174 1.0 11.0 0.00 0.00 0.00 1 1014.6
20260507025404 63 166 1.0 10.0 0.00 0.00 0.00 1 1014.7
20260507025325 63 164 1.0 10.0 0.00 0.00 0.00 1 1014.8
20260507025204 63 166 2.0 6.0 0.00 0.00 0.00 1 1014.9
20260507025104 63 162 2.0 6.0 0.00 0.00 0.00 1 1015.0
20260507025004 63 159 2.0 8.0 0.00 0.00 0.00 1 1015.0
20260507024904 63 156 2.0 10.0 0.00 0.00 0.00 1 1015.0
20260507024804 63 161 3.0 10.0 0.00 0.00 0.00 1 1015.1
20260507024725 63 159 3.0 10.0 0.00 0.00 0.00 1 1015.0
20260507024604 63 162 4.0 10.0 0.00 0.00 0.00 1 1015.0
20260507024504 63 162 4.0 10.0 0.00 0.00 0.00 1 1015.0
20260507024404 63 164 4.0 10.0 0.00 0.00 0.00 1 1015.0
20260507024304 63 164 4.0 10.0 0.00 0.00 0.00 1 1015.0
20260507024204 63 164 4.0 10.0 0.00 0.00 0.00 1 1014.9
20260507024125 63 166 4.0 10.0 0.00 0.00 0.00 1 1014.8
20260507024025 63 166 4.0 10.0 0.00 0.00 0.00 1 1014.7
20260507023904 63 165 4.0 12.0 0.00 0.00 0.00 1 1014.6
20260507023825 63 163 5.0 12.0 0.00 0.00 0.00 1 1014.6
20260507023725 63 163 4.0 12.0 0.00 0.00 0.00 1 1014.6
20260507023604 63 161 4.0 12.0 0.00 0.00 0.00 1 1014.7
20260507023504 63 161 4.0 12.0 0.00 0.00 0.00 1 1014.7
20260507023404 63 160 3.0 12.0 0.00 0.00 0.00 2 1014.7
20260507023304 63 159 3.0 12.0 0.00 0.00 0.00 2 1014.6
20260507023204 63 158 3.0 12.0 0.00 0.00 0.00 2 1014.5
20260507023104 63 157 2.0 12.0 0.00 0.00 0.00 2 1014.4
20260507023004 63 159 2.0 12.0 0.00 0.00 0.00 3 1014.5
20260507022904 63 163 1.0 12.0 0.00 0.00 0.00 3 1014.4
20260507022804 63 170 1.0 10.0 0.00 0.00 0.00 2 1014.4
20260507022725 63 174 1.0 8.0 0.00 0.00 0.00 2 1014.5
20260507022604 63 175 2.0 8.0 0.00 0.00 0.00 2 1014.5
20260507022504 63 173 3.0 9.0 0.00 0.00 0.00 2 1014.5
20260507022404 63 172 3.0 12.0 0.00 0.00 0.00 3 1014.4
20260507022306 63 172 3.0 12.0 0.00 0.00 0.00 3 1014.4
20260507022204 63 172 3.0 12.0 0.00 0.00 0.00 3 1014.4
20260507022103 63 172 3.0 12.0 0.00 0.00 0.00 3 1014.3
20260507022004 63 172 3.0 12.0 0.00 0.00 0.00 3 1014.4
20260507021904 63 172 2.0 12.0 0.00 0.00 0.00 3 1014.3
20260507021804 63 171 2.0 12.0 0.00 0.00 0.00 4 1014.3
20260507021704 63 168 2.0 12.0 0.00 0.00 0.00 4 1014.3
20260507021604 63 164 2.0 12.0 0.00 0.00 0.00 5 1014.4
20260507021504 63 162 1.0 12.0 0.00 0.00 0.00 4 1014.3
20260507021425 63 160 1.0 11.0 0.00 0.00 0.00 4 1014.3
20260507021304 63 158 1.0 11.0 0.00 0.00 0.00 4 1014.3
20260507021204 63 164 1.0 11.0 0.00 0.00 0.00 3 1014.4
20260507021104 63 164 1.0 11.0 0.00 0.00 0.00 4 1014.4
20260507021004 63 164 1.0 11.0 0.00 0.00 0.00 4 1014.4
20260507020904 63 164 1.0 11.0 0.00 0.00 0.00 4 1014.4
20260507020804 63 162 1.0 11.0 0.00 0.00 0.00 4 1014.5
20260507020704 63 167 2.0 11.0 0.00 0.00 0.00 4 1014.4
20260507020625 63 170 2.0 11.0 0.00 0.00 0.00 4 1014.4
20260507020504 63 170 2.0 11.0 0.00 0.00 0.00 4 1014.4
20260507020404 63 170 2.0 11.0 0.00 0.00 0.00 4 1014.3
20260507020304 63 170 2.0 11.0 0.00 0.00 0.00 5 1014.2
20260507020204 63 168 1.0 11.0 0.00 0.00 0.00 4 1014.2
20260507020104 63 167 1.0 11.0 0.00 0.00 0.00 5 1014.1
20260507020004 63 167 1.0 11.0 0.00 0.00 0.00 4 1014.0
20260507015904 63 167 1.0 11.0 0.00 0.00 0.00 5 1014.0
20260507015825 63 170 1.0 11.0 0.00 0.00 0.00 5 1013.9
20260507015704 63 163 0.0 10.0 0.00 0.00 0.00 6 1013.8
20260507015604 63 156 0.0 5.0 0.00 0.00 0.00 6 1013.9
20260507015504 63 157 0.0 5.0 0.00 0.00 0.00 6 1013.8
20260507015404 63 157 0.0 5.0 0.00 0.00 0.00 6 1013.9
20260507015306 63 157 0.0 5.0 0.00 0.00 0.00 7 1013.9
20260507015204 63 156 0.0 4.0 0.00 0.00 0.00 7 1013.8
20260507015104 63 165 0.0 2.0 0.00 0.00 0.00 7 1013.8
20260507015025 63 169 0.0 2.0 0.00 0.00 0.00 7 1013.8
20260507014904 63 155 0.0 2.0 0.00 0.00 0.00 7 1013.7
20260507014804 63 158 0.0 2.0 0.00 0.00 0.00 6 1013.8
20260507014704 63 156 0.0 2.0 0.00 0.00 0.00 7 1013.7
20260507014604 63 157 0.0 5.0 0.00 0.00 0.00 6 1013.8
20260507014525 63 167 0.0 5.0 0.00 0.00 0.00 7 1013.9
20260507014404 63 164 0.0 5.0 0.00 0.00 0.00 7 1014.0
20260507014304 63 164 0.0 5.0 0.00 0.00 0.00 7 1014.0
20260507014204 63 164 0.0 5.0 0.00 0.00 0.00 7 1013.9
20260507014104 63 164 0.0 5.0 0.00 0.00 0.00 7 1013.9
20260507014004 63 164 0.0 5.0 0.00 0.00 0.00 8 1013.8
20260507013904 63 164 0.0 5.0 0.00 0.00 0.00 9 1013.8
20260507013804 63 164 0.0 5.0 0.00 0.00 0.00 9 1013.8
20260507013704 63 164 0.0 5.0 0.00 0.00 0.00 10 1013.8
20260507013604 63 166 0.0 7.0 0.00 0.00 0.00 9 1013.6
20260507013504 63 166 0.0 7.0 0.00 0.00 0.00 9 1013.5
20260507013404 64 153 0.0 7.0 0.00 0.00 0.00 9 1013.4
20260507013304 63 153 0.0 7.0 0.00 0.00 0.00 9 1013.4
20260507013204 64 179 0.0 7.0 0.00 0.00 0.00 8 1013.4